| time (UTC) | temp C | wind direction | speed KPH | gust KPH | rain 1hr cm | rain 24hr cm | rain mn cm | humidity % | barometer mb |
| 20260504013722 | 11 | 22 | 0.0 | 0.0 | 0.00 | 0.05 | 0.00 | 75 | 994.4 |
| 20260504013622 | 11 | 22 | 0.0 | 0.0 | 0.00 | 0.05 | 0.00 | 75 | 994.4 |
| 20260504013522 | 11 | 28 | 0.0 | 0.0 | 0.00 | 0.05 | 0.00 | 75 | 994.4 |
| 20260504013422 | 11 | 67 | 0.0 | 0.0 | 0.00 | 0.05 | 0.00 | 74 | 994.4 |
| 20260504013322 | 11 | 90 | 0.0 | 0.0 | 0.00 | 0.05 | 0.00 | 74 | 994.4 |
| 20260504013222 | 11 | 90 | 0.0 | 0.0 | 0.00 | 0.05 | 0.00 | 74 | 994.3 |
| 20260504013122 | 11 | 90 | 0.0 | 0.0 | 0.00 | 0.05 | 0.00 | 74 | 994.3 |
| 20260504013022 | 11 | 79 | 0.0 | 1.6 | 0.00 | 0.05 | 0.00 | 74 | 994.3 |
| 20260504012922 | 11 | 51 | 0.0 | 1.6 | 0.00 | 0.05 | 0.00 | 75 | 994.3 |
| 20260504012822 | 11 | 45 | 0.0 | 0.0 | 0.00 | 0.05 | 0.00 | 75 | 994.4 |
| 20260504012722 | 11 | 45 | 0.0 | 0.0 | 0.00 | 0.05 | 0.00 | 75 | 994.4 |
| 20260504012622 | 11 | 45 | 0.0 | 0.0 | 0.00 | 0.05 | 0.00 | 76 | 994.4 |
| 20260504012522 | 11 | 45 | 0.0 | 0.0 | 0.00 | 0.05 | 0.00 | 76 | 994.4 |
| 20260504012422 | 11 | 45 | 0.0 | 0.0 | 0.00 | 0.05 | 0.00 | 76 | 994.5 |
| 20260504012321 | 11 | 45 | 0.0 | 0.0 | 0.00 | 0.05 | 0.00 | 76 | 994.4 |
| 20260504012221 | 11 | 68 | 0.0 | 0.0 | 0.00 | 0.05 | 0.00 | 75 | 994.4 |
| 20260504012121 | 11 | 90 | 0.0 | 0.0 | 0.00 | 0.05 | 0.00 | 74 | 994.4 |
| 20260504012021 | 11 | 82 | 0.0 | 0.0 | 0.00 | 0.05 | 0.00 | 75 | 994.4 |
| 20260504011921 | 11 | 68 | 0.0 | 0.0 | 0.00 | 0.05 | 0.00 | 75 | 994.3 |
| 20260504011821 | 10 | 45 | 0.0 | 0.0 | 0.00 | 0.05 | 0.00 | 76 | 994.4 |
| 20260504011721 | 10 | 349 | 0.0 | 0.0 | 0.00 | 0.05 | 0.00 | 76 | 994.3 |
| 20260504011621 | 10 | 338 | 0.0 | 0.0 | 0.00 | 0.05 | 0.00 | 76 | 994.4 |
| 20260504011521 | 10 | 338 | 0.0 | 0.0 | 0.00 | 0.05 | 0.00 | 77 | 994.4 |
| 20260504011421 | 10 | 338 | 0.0 | 0.0 | 0.00 | 0.05 | 0.00 | 77 | 994.4 |
| 20260504011321 | 10 | 335 | 0.0 | 0.0 | 0.00 | 0.05 | 0.00 | 77 | 994.5 |
| 20260504011221 | 10 | 315 | 0.0 | 1.6 | 0.00 | 0.05 | 0.00 | 77 | 994.4 |
| 20260504011121 | 10 | 315 | 0.0 | 1.6 | 0.00 | 0.05 | 0.00 | 77 | 994.3 |
| 20260504011021 | 10 | 350 | 0.0 | 0.0 | 0.00 | 0.05 | 0.00 | 77 | 994.4 |
| 20260504010921 | 10 | 22 | 0.0 | 1.6 | 0.00 | 0.05 | 0.00 | 77 | 994.4 |
| 20260504010821 | 10 | 22 | 0.0 | 1.6 | 0.00 | 0.05 | 0.00 | 77 | 994.3 |
| 20260504010723 | 10 | 357 | 0.0 | 1.6 | 0.00 | 0.05 | 0.00 | 77 | 994.3 |
| 20260504010623 | 10 | 270 | 0.0 | 1.6 | 0.00 | 0.05 | 0.00 | 77 | 994.3 |
| 20260504010523 | 10 | 259 | 1.6 | 1.6 | 0.00 | 0.05 | 0.00 | 76 | 994.3 |
| 20260504010423 | 11 | 135 | 0.0 | 1.6 | 0.00 | 0.05 | 0.00 | 76 | 994.2 |
| 20260504010323 | 11 | 148 | 0.0 | 1.6 | 0.00 | 0.05 | 0.00 | 76 | 994.3 |
| 20260504010223 | 11 | 285 | 0.0 | 1.6 | 0.00 | 0.05 | 0.00 | 76 | 994.1 |
| 20260504010122 | 11 | 289 | 0.0 | 0.0 | 0.00 | 0.05 | 0.00 | 75 | 994.3 |
| 20260504010022 | 11 | 270 | 0.0 | 0.0 | 0.00 | 0.05 | 0.00 | 75 | 994.4 |
| 20260504005922 | 11 | 270 | 0.0 | 0.0 | 0.00 | 0.05 | 0.00 | 75 | 994.3 |
| 20260504005822 | 11 | 270 | 0.0 | 0.0 | 0.00 | 0.05 | 0.00 | 75 | 994.3 |
| 20260504005722 | 11 | 270 | 0.0 | 0.0 | 0.00 | 0.05 | 0.00 | 75 | 994.2 |
| 20260504005622 | 11 | 270 | 0.0 | 0.0 | 0.00 | 0.05 | 0.00 | 75 | 994.2 |
| 20260504005522 | 11 | 270 | 0.0 | 0.0 | 0.00 | 0.05 | 0.00 | 75 | 994.3 |
| 20260504005422 | 11 | 270 | 0.0 | 0.0 | 0.00 | 0.05 | 0.00 | 75 | 994.2 |
| 20260504005322 | 11 | 270 | 0.0 | 1.6 | 0.00 | 0.05 | 0.00 | 76 | 994.4 |
| 20260504005222 | 11 | 269 | 1.6 | 3.2 | 0.00 | 0.05 | 0.00 | 76 | 994.4 |
| 20260504005122 | 11 | 238 | 0.0 | 3.2 | 0.00 | 0.05 | 0.00 | 74 | 994.3 |
| 20260504005022 | 11 | 251 | 0.0 | 0.0 | 0.00 | 0.05 | 0.00 | 74 | 994.4 |
| 20260504004922 | 12 | 270 | 1.6 | 3.2 | 0.00 | 0.05 | 0.00 | 75 | 994.3 |
| 20260504004822 | 12 | 270 | 1.6 | 3.2 | 0.00 | 0.05 | 0.00 | 74 | 994.2 |
| 20260504004722 | 12 | 270 | 0.0 | 3.2 | 0.00 | 0.05 | 0.00 | 72 | 994.3 |
| 20260504004622 | 12 | 270 | 0.0 | 0.0 | 0.00 | 0.05 | 0.00 | 72 | 994.2 |
| 20260504004522 | 12 | 256 | 0.0 | 0.0 | 0.00 | 0.05 | 0.00 | 71 | 994.3 |
| 20260504004422 | 12 | 270 | 0.0 | 0.0 | 0.00 | 0.05 | 0.00 | 73 | 994.2 |
| 20260504004322 | 12 | 270 | 0.0 | 0.0 | 0.00 | 0.05 | 0.00 | 73 | 994.2 |
| 20260504004222 | 12 | 270 | 0.0 | 0.0 | 0.00 | 0.05 | 0.00 | 72 | 994.2 |
| 20260504004122 | 13 | 288 | 0.0 | 0.0 | 0.00 | 0.05 | 0.00 | 70 | 994.2 |
| 20260504004022 | 13 | 294 | 0.0 | 0.0 | 0.00 | 0.05 | 0.00 | 70 | 994.4 |
| 20260504003922 | 13 | 315 | 0.0 | 0.0 | 0.00 | 0.05 | 0.00 | 69 | 994.2 |
| 20260504003821 | 13 | 226 | 0.0 | 0.0 | 0.00 | 0.05 | 0.00 | 67 | 994.3 |
| 20260504003722 | 13 | 143 | 0.0 | 0.0 | 0.00 | 0.05 | 0.00 | 65 | 994.3 |
| 20260504003621 | 13 | 135 | 0.0 | 0.0 | 0.00 | 0.05 | 0.00 | 64 | 994.3 |
| 20260504003521 | 12 | 135 | 0.0 | 3.2 | 0.00 | 0.05 | 0.00 | 65 | 994.2 |
| 20260504003421 | 12 | 119 | 0.0 | 3.2 | 0.00 | 0.05 | 0.00 | 66 | 994.2 |
| 20260504003321 | 12 | 107 | 0.0 | 1.6 | 0.00 | 0.05 | 0.00 | 67 | 994.3 |
| 20260504003221 | 12 | 90 | 0.0 | 0.0 | 0.00 | 0.05 | 0.00 | 68 | 994.2 |
| 20260504003121 | 12 | 90 | 0.0 | 0.0 | 0.00 | 0.05 | 0.00 | 70 | 994.1 |
| 20260504003021 | 12 | 90 | 0.0 | 0.0 | 0.00 | 0.05 | 0.00 | 71 | 994.2 |
| 20260504002921 | 12 | 90 | 0.0 | 0.0 | 0.00 | 0.05 | 0.00 | 72 | 994.1 |
| 20260504002821 | 11 | 90 | 0.0 | 0.0 | 0.00 | 0.05 | 0.00 | 74 | 994.1 |
| 20260504002721 | 11 | 90 | 0.0 | 0.0 | 0.00 | 0.05 | 0.00 | 74 | 994.2 |
| 20260504002621 | 11 | 90 | 0.0 | 0.0 | 0.00 | 0.05 | 0.00 | 74 | 994.2 |
| 20260504002521 | 11 | 90 | 0.0 | 0.0 | 0.00 | 0.05 | 0.00 | 75 | 994.2 |
| 20260504002421 | 11 | 90 | 0.0 | 0.0 | 0.00 | 0.05 | 0.00 | 75 | 994.3 |
| 20260504002321 | 11 | 90 | 0.0 | 0.0 | 0.00 | 0.05 | 0.00 | 75 | 994.3 |
| 20260504002221 | 11 | 90 | 0.0 | 0.0 | 0.00 | 0.05 | 0.00 | 74 | 994.2 |
| 20260504002121 | 11 | 90 | 0.0 | 0.0 | 0.00 | 0.05 | 0.00 | 74 | 994.3 |
| 20260504002021 | 12 | 90 | 0.0 | 0.0 | 0.00 | 0.05 | 0.00 | 74 | 994.4 |
| 20260504001921 | 12 | 90 | 0.0 | 0.0 | 0.00 | 0.05 | 0.00 | 74 | 994.3 |
| 20260504001821 | 12 | 90 | 0.0 | 0.0 | 0.00 | 0.05 | 0.00 | 74 | 994.3 |
| 20260504001721 | 12 | 90 | 0.0 | 0.0 | 0.00 | 0.05 | 0.00 | 72 | 994.3 |
| 20260504001623 | 12 | 90 | 0.0 | 0.0 | 0.00 | 0.05 | 0.00 | 72 | 994.4 |
| 20260504001523 | 12 | 90 | 0.0 | 0.0 | 0.00 | 0.05 | 0.00 | 72 | 994.3 |
| 20260504001423 | 12 | 90 | 0.0 | 0.0 | 0.00 | 0.05 | 0.00 | 71 | 994.2 |
| 20260504001322 | 12 | 90 | 0.0 | 0.0 | 0.00 | 0.05 | 0.00 | 71 | 994.2 |
| 20260504001222 | 12 | 90 | 0.0 | 0.0 | 0.00 | 0.05 | 0.00 | 71 | 994.3 |
| 20260504001122 | 13 | 90 | 0.0 | 0.0 | 0.00 | 0.05 | 0.00 | 71 | 994.4 |
| 20260504001022 | 13 | 90 | 0.0 | 0.0 | 0.00 | 0.05 | 0.00 | 71 | 994.3 |
| 20260504000922 | 13 | 90 | 0.0 | 0.0 | 0.00 | 0.05 | 0.00 | 69 | 994.3 |
| 20260504000822 | 13 | 126 | 0.0 | 0.0 | 0.00 | 0.05 | 0.00 | 70 | 994.2 |
| 20260504000722 | 13 | 135 | 0.0 | 0.0 | 0.00 | 0.05 | 0.00 | 70 | 994.2 |
| 20260504000622 | 13 | 135 | 0.0 | 0.0 | 0.00 | 0.05 | 0.00 | 70 | 994.3 |
| 20260504000522 | 13 | 135 | 0.0 | 0.0 | 0.00 | 0.05 | 0.00 | 70 | 994.1 |
| 20260504000423 | 13 | 135 | 0.0 | 0.0 | 0.00 | 0.05 | 0.00 | 70 | 994.2 |
| 20260504000322 | 13 | 135 | 0.0 | 0.0 | 0.00 | 0.05 | 0.00 | 70 | 994.2 |
| 20260504000222 | 13 | 135 | 0.0 | 0.0 | 0.00 | 0.05 | 0.00 | 70 | 994.2 |
| 20260504000122 | 13 | 135 | 0.0 | 0.0 | 0.00 | 0.05 | 0.00 | 70 | 994.2 |
| 20260504000022 | 13 | 153 | 0.0 | 0.0 | 0.00 | 0.05 | 0.00 | 71 | 994.2 |
| 20260503235922 | 13 | 158 | 0.0 | 0.0 | 0.00 | 0.05 | 0.00 | 70 | 994.2 |
| 20260503235822 | 13 | 158 | 0.0 | 0.0 | 0.00 | 0.05 | 0.00 | 71 | 994.2 |
| 20260503235722 | 13 | 158 | 0.0 | 0.0 | 0.00 | 0.05 | 0.00 | 71 | 994.3 |
| 20260503235622 | 13 | 158 | 0.0 | 0.0 | 0.00 | 0.05 | 0.00 | 70 | 994.2 |
| 20260503235522 | 13 | 158 | 0.0 | 0.0 | 0.00 | 0.05 | 0.00 | 70 | 994.3 |
| 20260503235422 | 13 | 173 | 0.0 | 0.0 | 0.00 | 0.05 | 0.00 | 70 | 994.3 |
| 20260503235322 | 12 | 180 | 0.0 | 0.0 | 0.00 | 0.05 | 0.00 | 70 | 994.2 |
| 20260503235222 | 12 | 206 | 0.0 | 0.0 | 0.00 | 0.05 | 0.00 | 71 | 994.2 |
| 20260503235122 | 12 | 248 | 0.0 | 0.0 | 0.00 | 0.05 | 0.00 | 72 | 994.3 |
| 20260503235022 | 12 | 248 | 0.0 | 0.0 | 0.00 | 0.05 | 0.00 | 72 | 994.5 |
| 20260503234922 | 12 | 248 | 0.0 | 0.0 | 0.00 | 0.05 | 0.00 | 72 | 994.3 |
| 20260503234821 | 12 | 248 | 0.0 | 0.0 | 0.00 | 0.05 | 0.00 | 71 | 994.2 |
| 20260503234721 | 12 | 206 | 0.0 | 0.0 | 0.00 | 0.05 | 0.00 | 71 | 994.3 |
| 20260503234621 | 12 | 135 | 0.0 | 0.0 | 0.00 | 0.05 | 0.00 | 72 | 994.4 |
| 20260503234521 | 12 | 208 | 0.0 | 0.0 | 0.00 | 0.05 | 0.00 | 72 | 994.3 |
| 20260503234421 | 12 | 234 | 0.0 | 0.0 | 0.00 | 0.05 | 0.00 | 73 | 994.3 |
| 20260503234321 | 12 | 135 | 0.0 | 0.0 | 0.00 | 0.05 | 0.00 | 72 | 994.3 |
| 20260503234221 | 12 | 135 | 0.0 | 0.0 | 0.00 | 0.05 | 0.00 | 72 | 994.3 |
| 20260503234121 | 12 | 149 | 0.0 | 0.0 | 0.00 | 0.05 | 0.00 | 72 | 994.2 |
| 20260503234021 | 12 | 162 | 0.0 | 0.0 | 0.00 | 0.05 | 0.00 | 72 | 994.3 |
| 20260503233921 | 12 | 217 | 0.0 | 0.0 | 0.00 | 0.05 | 0.00 | 73 | 994.2 |
| 20260503233821 | 12 | 270 | 0.0 | 0.0 | 0.00 | 0.05 | 0.00 | 73 | 994.2 |
| 20260503233721 | 13 | 270 | 0.0 | 1.6 | 0.00 | 0.05 | 0.00 | 72 | 994.1 |
| 20260503233621 | 13 | 270 | 1.6 | 3.2 | 0.00 | 0.05 | 0.00 | 73 | 994.3 |
| 20260503233521 | 13 | 289 | 0.0 | 3.2 | 0.00 | 0.05 | 0.00 | 71 | 994.3 |
| 20260503233421 | 13 | 315 | 0.0 | 0.0 | 0.00 | 0.05 | 0.00 | 70 | 994.2 |
| 20260503233321 | 13 | 315 | 0.0 | 0.0 | 0.00 | 0.05 | 0.00 | 71 | 994.2 |
| 20260503233221 | 13 | 315 | 0.0 | 0.0 | 0.00 | 0.05 | 0.00 | 70 | 994.2 |
| 20260503233123 | 13 | 315 | 0.0 | 0.0 | 0.00 | 0.05 | 0.00 | 70 | 994.1 |
| 20260503233023 | 13 | 315 | 0.0 | 0.0 | 0.00 | 0.05 | 0.00 | 71 | 994.1 |
| 20260503232923 | 13 | 315 | 0.0 | 0.0 | 0.00 | 0.05 | 0.00 | 71 | 994.1 |
| 20260503232823 | 13 | 315 | 0.0 | 0.0 | 0.00 | 0.05 | 0.00 | 71 | 994.2 |
| 20260503232722 | 13 | 315 | 0.0 | 0.0 | 0.00 | 0.05 | 0.00 | 72 | 994.2 |
| 20260503232622 | 13 | 315 | 0.0 | 0.0 | 0.00 | 0.05 | 0.00 | 71 | 994.3 |
| 20260503232522 | 13 | 315 | 0.0 | 0.0 | 0.00 | 0.05 | 0.00 | 71 | 994.3 |
| 20260503232422 | 13 | 295 | 0.0 | 0.0 | 0.00 | 0.05 | 0.00 | 70 | 994.3 |
| 20260503232322 | 13 | 292 | 0.0 | 0.0 | 0.00 | 0.05 | 0.00 | 71 | 994.3 |
| 20260503232222 | 13 | 292 | 0.0 | 0.0 | 0.00 | 0.05 | 0.00 | 72 | 994.3 |
| 20260503232122 | 13 | 292 | 0.0 | 0.0 | 0.00 | 0.05 | 0.00 | 71 | 994.3 |
| 20260503232022 | 13 | 292 | 0.0 | 0.0 | 0.00 | 0.05 | 0.00 | 71 | 994.3 |
| 20260503231922 | 13 | 292 | 0.0 | 0.0 | 0.00 | 0.05 | 0.00 | 72 | 994.2 |
| 20260503231822 | 13 | 292 | 0.0 | 0.0 | 0.00 | 0.05 | 0.00 | 72 | 994.2 |
| 20260503231722 | 13 | 292 | 0.0 | 0.0 | 0.00 | 0.05 | 0.00 | 72 | 994.3 |
| 20260503231622 | 13 | 292 | 0.0 | 0.0 | 0.00 | 0.05 | 0.00 | 72 | 994.3 |
| 20260503231522 | 13 | 292 | 0.0 | 0.0 | 0.00 | 0.05 | 0.00 | 72 | 994.3 |
| 20260503231422 | 13 | 277 | 0.0 | 0.0 | 0.00 | 0.05 | 0.00 | 71 | 994.3 |
| 20260503231322 | 13 | 270 | 0.0 | 0.0 | 0.00 | 0.05 | 0.00 | 71 | 994.2 |
| 20260503231222 | 13 | 270 | 0.0 | 0.0 | 0.00 | 0.05 | 0.00 | 71 | 994.2 |
| 20260503231122 | 13 | 270 | 0.0 | 0.0 | 0.00 | 0.05 | 0.00 | 71 | 994.1 |
| 20260503231022 | 14 | 285 | 0.0 | 0.0 | 0.00 | 0.05 | 0.00 | 70 | 994.3 |
| 20260503230922 | 14 | 291 | 0.0 | 0.0 | 0.00 | 0.05 | 0.00 | 69 | 994.2 |
| 20260503230822 | 14 | 273 | 0.0 | 0.0 | 0.00 | 0.05 | 0.00 | 67 | 994.2 |
| 20260503230722 | 14 | 270 | 0.0 | 0.0 | 0.00 | 0.05 | 0.00 | 67 | 994.2 |
| 20260503230621 | 14 | 270 | 0.0 | 0.0 | 0.00 | 0.05 | 0.00 | 67 | 994.3 |
| 20260503230521 | 14 | 270 | 0.0 | 0.0 | 0.00 | 0.05 | 0.00 | 66 | 994.2 |
| 20260503230421 | 15 | 270 | 0.0 | 0.0 | 0.00 | 0.05 | 0.00 | 66 | 994.1 |
| 20260503230321 | 15 | 270 | 0.0 | 0.0 | 0.00 | 0.05 | 0.00 | 67 | 994.2 |
| 20260503230221 | 15 | 261 | 0.0 | 0.0 | 0.00 | 0.05 | 0.00 | 67 | 994.1 |
| 20260503230121 | 15 | 140 | 0.0 | 0.0 | 0.00 | 0.05 | 0.00 | 63 | 994.2 |
| 20260503230021 | 15 | 112 | 0.0 | 0.0 | 0.00 | 0.05 | 0.00 | 60 | 994.2 |
| 20260503225921 | 15 | 112 | 0.0 | 0.0 | 0.00 | 0.05 | 0.00 | 60 | 994.3 |
| 20260503225821 | 15 | 112 | 0.0 | 0.0 | 0.00 | 0.05 | 0.00 | 60 | 994.3 |
| 20260503225721 | 15 | 127 | 0.0 | 0.0 | 0.00 | 0.05 | 0.00 | 63 | 994.1 |
| 20260503225621 | 15 | 135 | 0.0 | 0.0 | 0.00 | 0.05 | 0.00 | 68 | 994.3 |
| 20260503225521 | 15 | 135 | 0.0 | 0.0 | 0.00 | 0.05 | 0.00 | 67 | 994.2 |
| 20260503225421 | 15 | 135 | 0.0 | 0.0 | 0.00 | 0.05 | 0.00 | 66 | 994.3 |
| 20260503225321 | 15 | 135 | 0.0 | 0.0 | 0.00 | 0.05 | 0.00 | 65 | 994.3 |
| 20260503225221 | 15 | 135 | 0.0 | 0.0 | 0.00 | 0.05 | 0.00 | 65 | 994.3 |
| 20260503225121 | 15 | 135 | 0.0 | 0.0 | 0.00 | 0.05 | 0.00 | 66 | 994.3 |
| 20260503225021 | 15 | 135 | 0.0 | 0.0 | 0.00 | 0.05 | 0.00 | 66 | 994.3 |
| 20260503224921 | 15 | 135 | 0.0 | 0.0 | 0.00 | 0.05 | 0.00 | 66 | 994.2 |
| 20260503224821 | 15 | 135 | 0.0 | 0.0 | 0.00 | 0.05 | 0.00 | 64 | 994.3 |
| 20260503224721 | 15 | 135 | 0.0 | 0.0 | 0.00 | 0.05 | 0.00 | 64 | 994.3 |
| 20260503224621 | 15 | 135 | 0.0 | 0.0 | 0.00 | 0.05 | 0.00 | 64 | 994.3 |
| 20260503224521 | 15 | 137 | 0.0 | 0.0 | 0.00 | 0.05 | 0.00 | 65 | 994.4 |
| 20260503224423 | 15 | 258 | 0.0 | 0.0 | 0.00 | 0.05 | 0.00 | 65 | 994.3 |
| 20260503224323 | 15 | 292 | 0.0 | 0.0 | 0.00 | 0.05 | 0.00 | 66 | 994.3 |
| 20260503224223 | 15 | 292 | 0.0 | 0.0 | 0.00 | 0.05 | 0.00 | 66 | 994.3 |
| 20260503224123 | 15 | 112 | 0.0 | 0.0 | 0.00 | 0.05 | 0.00 | 65 | 994.3 |
| 20260503224022 | 15 | 112 | 0.0 | 0.0 | 0.00 | 0.05 | 0.00 | 63 | 994.3 |
| 20260503223922 | 15 | 112 | 0.0 | 0.0 | 0.00 | 0.05 | 0.00 | 64 | 994.3 |
| 20260503223822 | 15 | 112 | 0.0 | 0.0 | 0.00 | 0.05 | 0.00 | 64 | 994.4 |
| 20260503223722 | 15 | 112 | 0.0 | 0.0 | 0.00 | 0.05 | 0.00 | 63 | 994.4 |
| 20260503223622 | 15 | 112 | 0.0 | 0.0 | 0.00 | 0.05 | 0.00 | 63 | 994.4 |
| 20260503223522 | 15 | 112 | 0.0 | 0.0 | 0.00 | 0.05 | 0.00 | 63 | 994.3 |
| 20260503223422 | 15 | 112 | 0.0 | 0.0 | 0.00 | 0.05 | 0.00 | 63 | 994.3 |
| 20260503223322 | 15 | 112 | 0.0 | 0.0 | 0.00 | 0.05 | 0.00 | 64 | 994.3 |
| 20260503223222 | 15 | 112 | 0.0 | 0.0 | 0.00 | 0.05 | 0.00 | 64 | 994.3 |
| 20260503223122 | 15 | 112 | 0.0 | 0.0 | 0.00 | 0.05 | 0.00 | 64 | 994.3 |
| 20260503223022 | 15 | 164 | 0.0 | 0.0 | 0.00 | 0.05 | 0.00 | 64 | 994.3 |
| 20260503222922 | 15 | 270 | 0.0 | 0.0 | 0.00 | 0.05 | 0.00 | 64 | 994.3 |
| 20260503222822 | 15 | 270 | 0.0 | 0.0 | 0.00 | 0.05 | 0.00 | 64 | 994.4 |
| 20260503222722 | 15 | 270 | 0.0 | 0.0 | 0.00 | 0.05 | 0.00 | 65 | 994.4 |
| 20260503222622 | 15 | 270 | 0.0 | 0.0 | 0.00 | 0.05 | 0.00 | 65 | 994.4 |
| 20260503222522 | 15 | 270 | 0.0 | 0.0 | 0.00 | 0.05 | 0.00 | 65 | 994.3 |
| 20260503222422 | 15 | 270 | 0.0 | 0.0 | 0.00 | 0.05 | 0.00 | 66 | 994.3 |
| 20260503222321 | 15 | 270 | 0.0 | 0.0 | 0.00 | 0.05 | 0.00 | 65 | 994.2 |
| 20260503222221 | 15 | 270 | 0.0 | 0.0 | 0.00 | 0.05 | 0.00 | 65 | 994.3 |
| 20260503222121 | 15 | 270 | 0.0 | 0.0 | 0.00 | 0.05 | 0.00 | 66 | 994.3 |
| 20260503222021 | 15 | 270 | 0.0 | 0.0 | 0.00 | 0.05 | 0.00 | 66 | 994.2 |
| 20260503221921 | 15 | 270 | 0.0 | 0.0 | 0.00 | 0.05 | 0.00 | 66 | 994.3 |
| 20260503221821 | 15 | 270 | 0.0 | 0.0 | 0.00 | 0.05 | 0.00 | 66 | 994.3 |
| 20260503221721 | 15 | 271 | 0.0 | 3.2 | 0.00 | 0.05 | 0.00 | 67 | 994.2 |
| 20260503221621 | 15 | 279 | 1.6 | 3.2 | 0.00 | 0.05 | 0.00 | 66 | 994.3 |
| 20260503221521 | 16 | 270 | 3.2 | 3.2 | 0.00 | 0.05 | 0.00 | 66 | 994.4 |
| 20260503221421 | 16 | 270 | 1.6 | 3.2 | 0.00 | 0.05 | 0.00 | 66 | 994.3 |
| 20260503221321 | 16 | 270 | 0.0 | 3.2 | 0.00 | 0.05 | 0.00 | 63 | 994.3 |
| 20260503221221 | 16 | 270 | 0.0 | 0.0 | 0.00 | 0.05 | 0.00 | 62 | 994.2 |
| 20260503221121 | 16 | 270 | 0.0 | 0.0 | 0.00 | 0.05 | 0.00 | 60 | 994.2 |
| 20260503221021 | 16 | 270 | 0.0 | 0.0 | 0.00 | 0.05 | 0.00 | 59 | 994.3 |
| 20260503220921 | 16 | 270 | 0.0 | 0.0 | 0.00 | 0.05 | 0.00 | 59 | 994.3 |
| 20260503220821 | 17 | 270 | 0.0 | 0.0 | 0.00 | 0.05 | 0.00 | 59 | 994.2 |
| 20260503220723 | 17 | 270 | 0.0 | 0.0 | 0.00 | 0.05 | 0.00 | 58 | 994.2 |
| 20260503220623 | 17 | 270 | 0.0 | 0.0 | 0.00 | 0.05 | 0.00 | 57 | 994.4 |
| 20260503220523 | 17 | 274 | 0.0 | 1.6 | 0.00 | 0.05 | 0.00 | 57 | 994.3 |
| 20260503220423 | 17 | 51 | 0.0 | 1.6 | 0.00 | 0.05 | 0.00 | 50 | 994.2 |
| 20260503220323 | 17 | 135 | 0.0 | 0.0 | 0.00 | 0.05 | 0.00 | 50 | 994.4 |
| 20260503220223 | 17 | 135 | 0.0 | 0.0 | 0.00 | 0.05 | 0.00 | 50 | 994.2 |
| 20260503220122 | 17 | 135 | 0.0 | 0.0 | 0.00 | 0.05 | 0.00 | 49 | 994.2 |
| 20260503220022 | 17 | 130 | 0.0 | 3.2 | 0.00 | 0.05 | 0.00 | 49 | 994.3 |
| 20260503215922 | 17 | 112 | 1.6 | 3.2 | 0.00 | 0.05 | 0.05 | 49 | 994.3 |
| 20260503215822 | 17 | 112 | 1.6 | 3.2 | 0.00 | 0.05 | 0.05 | 49 | 994.3 |
| 20260503215722 | 17 | 126 | 1.6 | 1.6 | 0.00 | 0.05 | 0.05 | 49 | 994.3 |
| 20260503215622 | 17 | 98 | 0.0 | 1.6 | 0.00 | 0.05 | 0.05 | 50 | 994.2 |
| 20260503215522 | 17 | 62 | 0.0 | 0.0 | 0.00 | 0.05 | 0.05 | 52 | 994.3 |
| 20260503215422 | 17 | 67 | 0.0 | 1.6 | 0.00 | 0.05 | 0.05 | 54 | 994.4 |
| 20260503215322 | 17 | 104 | 0.0 | 1.6 | 0.00 | 0.05 | 0.05 | 49 | 994.4 |
| 20260503215222 | 17 | 90 | 0.0 | 1.6 | 0.00 | 0.05 | 0.05 | 51 | 994.4 |
| 20260503215122 | 18 | 90 | 0.0 | 0.0 | 0.00 | 0.05 | 0.05 | 53 | 994.3 |
| 20260503215022 | 18 | 339 | 0.0 | 1.6 | 0.00 | 0.05 | 0.05 | 53 | 994.4 |
| 20260503214922 | 18 | 73 | 0.0 | 1.6 | 0.00 | 0.05 | 0.05 | 51 | 994.3 |
| 20260503214822 | 18 | 134 | 0.0 | 1.6 | 0.00 | 0.05 | 0.05 | 48 | 994.3 |
| 20260503214722 | 18 | 135 | 1.6 | 1.6 | 0.00 | 0.05 | 0.05 | 48 | 994.2 |
| 20260503214622 | 18 | 106 | 0.0 | 1.6 | 0.00 | 0.05 | 0.05 | 48 | 994.3 |
| 20260503214522 | 18 | 140 | 0.0 | 1.6 | 0.00 | 0.05 | 0.05 | 47 | 994.3 |
| 20260503214421 | 17 | 150 | 0.0 | 1.6 | 0.00 | 0.05 | 0.05 | 47 | 994.3 |
| 20260503214321 | 17 | 143 | 0.0 | 3.2 | 0.00 | 0.05 | 0.05 | 47 | 994.2 |
| 20260503214221 | 17 | 151 | 1.6 | 3.2 | 0.00 | 0.05 | 0.05 | 48 | 994.4 |
| 20260503214121 | 17 | 104 | 0.0 | 3.2 | 0.00 | 0.05 | 0.05 | 50 | 994.4 |
| 20260503214021 | 17 | 130 | 1.6 | 3.2 | 0.00 | 0.05 | 0.05 | 50 | 994.4 |
| 20260503213921 | 17 | 112 | 0.0 | 3.2 | 0.00 | 0.05 | 0.05 | 51 | 994.4 |
| 20260503213821 | 17 | 136 | 0.0 | 0.0 | 0.00 | 0.05 | 0.05 | 53 | 994.5 |
| 20260503213721 | 17 | 124 | 0.0 | 0.0 | 0.00 | 0.05 | 0.05 | 51 | 994.4 |
| 20260503213621 | 17 | 112 | 0.0 | 0.0 | 0.00 | 0.05 | 0.05 | 50 | 994.4 |
| 20260503213521 | 17 | 112 | 0.0 | 0.0 | 0.00 | 0.05 | 0.05 | 50 | 994.4 |
| 20260503213421 | 16 | 136 | 0.0 | 0.0 | 0.00 | 0.05 | 0.05 | 52 | 994.5 |
| 20260503213321 | 16 | 155 | 0.0 | 0.0 | 0.00 | 0.05 | 0.05 | 54 | 994.4 |
| 20260503213221 | 16 | 143 | 0.0 | 0.0 | 0.00 | 0.05 | 0.05 | 56 | 994.5 |
| 20260503213121 | 16 | 183 | 0.0 | 0.0 | 0.00 | 0.05 | 0.05 | 58 | 994.4 |
| 20260503213021 | 16 | 270 | 0.0 | 0.0 | 0.00 | 0.05 | 0.05 | 59 | 994.4 |
| 20260503212921 | 16 | 270 | 0.0 | 0.0 | 0.00 | 0.05 | 0.05 | 60 | 994.3 |
| 20260503212821 | 16 | 238 | 0.0 | 0.0 | 0.00 | 0.05 | 0.05 | 57 | 994.4 |
| 20260503212721 | 16 | 135 | 0.0 | 0.0 | 0.00 | 0.05 | 0.05 | 55 | 994.4 |
| 20260503212623 | 16 | 123 | 0.0 | 0.0 | 0.00 | 0.05 | 0.05 | 56 | 994.4 |
| 20260503212523 | 16 | 233 | 0.0 | 0.0 | 0.00 | 0.05 | 0.05 | 60 | 994.4 |
| 20260503212423 | 16 | 240 | 0.0 | 0.0 | 0.00 | 0.05 | 0.05 | 61 | 994.3 |
| 20260503212323 | 16 | 199 | 0.0 | 0.0 | 0.00 | 0.05 | 0.05 | 59 | 994.5 |
| 20260503212223 | 16 | 270 | 0.0 | 1.6 | 0.00 | 0.05 | 0.05 | 59 | 994.4 |
| 20260503212122 | 16 | 270 | 0.0 | 1.6 | 0.00 | 0.05 | 0.05 | 60 | 994.4 |
| 20260503212022 | 16 | 278 | 0.0 | 1.6 | 0.00 | 0.05 | 0.05 | 60 | 994.5 |
| 20260503211922 | 16 | 272 | 0.0 | 0.0 | 0.00 | 0.05 | 0.05 | 59 | 994.4 |
| 20260503211822 | 16 | 238 | 0.0 | 0.0 | 0.00 | 0.05 | 0.05 | 59 | 994.4 |
| 20260503211722 | 16 | 265 | 0.0 | 0.0 | 0.00 | 0.05 | 0.05 | 60 | 994.4 |
| 20260503211622 | 16 | 270 | 0.0 | 0.0 | 0.00 | 0.05 | 0.05 | 62 | 994.5 |
| 20260503211522 | 16 | 270 | 0.0 | 3.2 | 0.00 | 0.05 | 0.05 | 62 | 994.4 |
| 20260503211422 | 16 | 270 | 1.6 | 3.2 | 0.00 | 0.05 | 0.05 | 62 | 994.5 |
| 20260503211322 | 16 | 270 | 1.6 | 3.2 | 0.00 | 0.05 | 0.05 | 60 | 994.5 |
| 20260503211222 | 16 | 270 | 1.6 | 1.6 | 0.00 | 0.05 | 0.05 | 58 | 994.5 |
| 20260503211122 | 16 | 270 | 0.0 | 1.6 | 0.00 | 0.05 | 0.05 | 58 | 994.4 |
| 20260503211022 | 16 | 309 | 0.0 | 1.6 | 0.00 | 0.05 | 0.05 | 57 | 994.4 |
| 20260503210922 | 16 | 40 | 0.0 | 1.6 | 0.00 | 0.05 | 0.05 | 56 | 994.5 |
| 20260503210822 | 16 | 114 | 0.0 | 0.0 | 0.00 | 0.05 | 0.05 | 55 | 994.5 |
| 20260503210722 | 16 | 161 | 0.0 | 0.0 | 0.00 | 0.05 | 0.05 | 56 | 994.4 |
| 20260503210622 | 16 | 251 | 0.0 | 0.0 | 0.00 | 0.05 | 0.05 | 58 | 994.5 |
| 20260503210522 | 16 | 270 | 0.0 | 0.0 | 0.00 | 0.05 | 0.05 | 58 | 994.4 |
| 20260503210422 | 16 | 270 | 0.0 | 0.0 | 0.00 | 0.05 | 0.05 | 56 | 994.5 |
| 20260503210322 | 16 | 270 | 0.0 | 0.0 | 0.00 | 0.05 | 0.05 | 58 | 994.5 |
| 20260503210222 | 16 | 270 | 0.0 | 0.0 | 0.00 | 0.05 | 0.05 | 57 | 994.4 |
| 20260503210122 | 16 | 266 | 0.0 | 0.0 | 0.00 | 0.05 | 0.05 | 57 | 994.4 |
| 20260503210022 | 16 | 248 | 0.0 | 0.0 | 0.00 | 0.05 | 0.05 | 57 | 994.3 |
| 20260503205922 | 16 | 248 | 0.0 | 0.0 | 0.00 | 0.05 | 0.05 | 58 | 994.3 |
| 20260503205821 | 16 | 248 | 0.0 | 0.0 | 0.00 | 0.05 | 0.05 | 57 | 994.4 |
| 20260503205721 | 16 | 248 | 0.0 | 0.0 | 0.00 | 0.05 | 0.05 | 57 | 994.5 |
| 20260503205621 | 16 | 248 | 0.0 | 0.0 | 0.00 | 0.05 | 0.05 | 56 | 994.5 |
| 20260503205521 | 16 | 248 | 0.0 | 0.0 | 0.00 | 0.05 | 0.05 | 56 | 994.3 |
| 20260503205421 | 16 | 248 | 0.0 | 0.0 | 0.00 | 0.05 | 0.05 | 56 | 994.4 |
| 20260503205321 | 16 | 248 | 0.0 | 0.0 | 0.00 | 0.05 | 0.05 | 56 | 994.5 |
| 20260503205221 | 16 | 248 | 0.0 | 0.0 | 0.00 | 0.05 | 0.05 | 56 | 994.4 |
| 20260503205121 | 16 | 248 | 0.0 | 0.0 | 0.00 | 0.05 | 0.05 | 55 | 994.5 |
| 20260503205021 | 16 | 248 | 0.0 | 0.0 | 0.00 | 0.05 | 0.05 | 56 | 994.4 |
| 20260503204921 | 17 | 248 | 0.0 | 0.0 | 0.00 | 0.05 | 0.05 | 55 | 994.4 |
| 20260503204821 | 17 | 248 | 0.0 | 0.0 | 0.00 | 0.05 | 0.05 | 54 | 994.6 |
| 20260503204721 | 17 | 248 | 0.0 | 0.0 | 0.00 | 0.05 | 0.05 | 54 | 994.5 |
| 20260503204621 | 17 | 248 | 0.0 | 0.0 | 0.00 | 0.05 | 0.05 | 53 | 994.5 |
| 20260503204521 | 17 | 248 | 0.0 | 0.0 | 0.00 | 0.05 | 0.05 | 53 | 994.4 |
| 20260503204421 | 17 | 248 | 0.0 | 0.0 | 0.00 | 0.05 | 0.05 | 53 | 994.5 |
| 20260503204321 | 17 | 225 | 0.0 | 0.0 | 0.00 | 0.05 | 0.05 | 54 | 994.4 |
| 20260503204221 | 17 | 166 | 0.0 | 0.0 | 0.00 | 0.05 | 0.05 | 52 | 994.5 |
| 20260503204121 | 17 | 284 | 0.0 | 0.0 | 0.00 | 0.05 | 0.05 | 52 | 994.5 |
| 20260503204021 | 17 | 275 | 0.0 | 0.0 | 0.00 | 0.05 | 0.05 | 52 | 994.6 |
| 20260503203921 | 17 | 270 | 0.0 | 0.0 | 0.00 | 0.05 | 0.05 | 54 | 994.5 |
| 20260503203821 | 17 | 270 | 0.0 | 0.0 | 0.00 | 0.05 | 0.05 | 52 | 994.5 |
| 20260503203723 | 17 | 270 | 0.0 | 0.0 | 0.00 | 0.05 | 0.05 | 53 | 994.5 |
| 20260503203623 | 17 | 270 | 0.0 | 1.6 | 0.00 | 0.05 | 0.05 | 53 | 994.5 |
| 20260503203523 | 17 | 270 | 0.0 | 1.6 | 0.00 | 0.05 | 0.05 | 52 | 994.6 |
| 20260503203423 | 17 | 270 | 0.0 | 0.0 | 0.00 | 0.05 | 0.05 | 50 | 994.5 |
| 20260503203322 | 17 | 270 | 0.0 | 0.0 | 0.00 | 0.05 | 0.05 | 49 | 994.5 |
| 20260503203222 | 17 | 268 | 0.0 | 1.6 | 0.00 | 0.05 | 0.05 | 50 | 994.5 |
| 20260503203122 | 17 | 120 | 1.6 | 1.6 | 0.00 | 0.05 | 0.05 | 49 | 994.4 |
| 20260503203022 | 17 | 187 | 0.0 | 1.6 | 0.00 | 0.05 | 0.05 | 50 | 994.4 |
| 20260503202922 | 17 | 163 | 0.0 | 1.6 | 0.00 | 0.05 | 0.05 | 50 | 994.5 |
| 20260503202822 | 17 | 140 | 0.0 | 1.6 | 0.00 | 0.05 | 0.05 | 50 | 994.5 |
| 20260503202722 | 17 | 127 | 0.0 | 0.0 | 0.00 | 0.05 | 0.05 | 50 | 994.4 |
| 20260503202622 | 17 | 127 | 0.0 | 1.6 | 0.00 | 0.05 | 0.05 | 51 | 994.4 |
| 20260503202522 | 17 | 135 | 0.0 | 1.6 | 0.00 | 0.05 | 0.05 | 51 | 994.5 |
| 20260503202422 | 17 | 132 | 0.0 | 1.6 | 0.00 | 0.05 | 0.05 | 51 | 994.6 |
| 20260503202322 | 17 | 118 | 0.0 | 3.2 | 0.00 | 0.05 | 0.05 | 51 | 994.5 |
| 20260503202222 | 17 | 134 | 1.6 | 3.2 | 0.00 | 0.05 | 0.05 | 52 | 994.5 |
| 20260503202122 | 17 | 114 | 0.0 | 3.2 | 0.00 | 0.05 | 0.05 | 52 | 994.8 |
| 20260503202022 | 17 | 130 | 0.0 | 1.6 | 0.00 | 0.05 | 0.05 | 51 | 994.7 |
| 20260503201922 | 17 | 135 | 0.0 | 1.6 | 0.00 | 0.05 | 0.05 | 51 | 994.6 |
| 20260503201822 | 17 | 118 | 0.0 | 1.6 | 0.00 | 0.05 | 0.05 | 51 | 994.6 |
| 20260503201722 | 17 | 132 | 0.0 | 1.6 | 0.00 | 0.05 | 0.05 | 51 | 994.5 |
| 20260503201621 | 17 | 117 | 0.0 | 1.6 | 0.00 | 0.05 | 0.05 | 51 | 994.6 |
| 20260503201521 | 17 | 112 | 0.0 | 0.0 | 0.00 | 0.05 | 0.05 | 52 | 994.7 |
| 20260503201421 | 17 | 113 | 0.0 | 1.6 | 0.00 | 0.05 | 0.05 | 51 | 994.7 |
| 20260503201321 | 17 | 267 | 0.0 | 1.6 | 0.00 | 0.05 | 0.05 | 50 | 994.7 |
| 20260503201221 | 17 | 270 | 0.0 | 0.0 | 0.00 | 0.05 | 0.05 | 50 | 994.7 |
| 20260503201121 | 17 | 270 | 0.0 | 0.0 | 0.00 | 0.05 | 0.05 | 50 | 994.7 |
| 20260503201021 | 17 | 270 | 0.0 | 0.0 | 0.00 | 0.05 | 0.05 | 50 | 994.7 |
| 20260503200921 | 17 | 270 | 0.0 | 0.0 | 0.00 | 0.05 | 0.05 | 51 | 994.7 |
| 20260503200821 | 17 | 270 | 0.0 | 1.6 | 0.00 | 0.05 | 0.05 | 50 | 994.8 |
| 20260503200721 | 17 | 270 | 0.0 | 1.6 | 0.00 | 0.05 | 0.05 | 49 | 994.7 |
| 20260503200621 | 17 | 258 | 0.0 | 3.2 | 0.00 | 0.05 | 0.05 | 49 | 994.8 |
| 20260503200521 | 17 | 133 | 0.0 | 3.2 | 0.00 | 0.05 | 0.05 | 48 | 994.7 |
| 20260503200421 | 17 | 112 | 0.0 | 1.6 | 0.00 | 0.05 | 0.05 | 48 | 994.7 |
| 20260503200321 | 17 | 125 | 0.0 | 3.2 | 0.00 | 0.05 | 0.05 | 47 | 994.7 |
| 20260503200221 | 17 | 138 | 1.6 | 4.8 | 0.00 | 0.05 | 0.05 | 46 | 994.7 |
| 20260503200121 | 17 | 135 | 3.2 | 4.8 | 0.00 | 0.05 | 0.05 | 46 | 994.7 |
| 20260503200023 | 17 | 135 | 4.8 | 8.0 | 0.00 | 0.05 | 0.05 | 46 | 994.7 |
| 20260503195923 | 17 | 143 | 4.8 | 8.0 | 0.00 | 0.05 | 0.05 | 46 | 994.5 |
| 20260503195823 | 17 | 145 | 3.2 | 8.0 | 0.00 | 0.05 | 0.05 | 47 | 994.6 |
| 20260503195723 | 17 | 135 | 3.2 | 4.8 | 0.00 | 0.05 | 0.05 | 47 | 994.5 |
| 20260503195623 | 17 | 132 | 3.2 | 4.8 | 0.00 | 0.05 | 0.05 | 47 | 994.8 |
| 20260503195523 | 17 | 112 | 1.6 | 3.2 | 0.00 | 0.05 | 0.05 | 47 | 994.6 |
| 20260503195422 | 17 | 114 | 0.0 | 3.2 | 0.00 | 0.05 | 0.05 | 47 | 994.7 |
| 20260503195322 | 17 | 134 | 3.2 | 3.2 | 0.00 | 0.05 | 0.05 | 47 | 994.6 |
| 20260503195222 | 17 | 155 | 3.2 | 4.8 | 0.00 | 0.05 | 0.05 | 47 | 994.7 |
| 20260503195122 | 17 | 158 | 3.2 | 8.0 | 0.00 | 0.05 | 0.05 | 47 | 994.6 |
| 20260503195022 | 17 | 156 | 3.2 | 9.7 | 0.00 | 0.05 | 0.05 | 47 | 994.6 |
| 20260503194922 | 17 | 115 | 4.8 | 9.7 | 0.00 | 0.05 | 0.05 | 47 | 994.7 |
| 20260503194822 | 17 | 151 | 4.8 | 11.3 | 0.00 | 0.05 | 0.05 | 47 | 994.7 |
| 20260503194722 | 17 | 148 | 4.8 | 11.3 | 0.00 | 0.05 | 0.05 | 47 | 994.5 |
| 20260503194622 | 17 | 149 | 4.8 | 9.7 | 0.00 | 0.05 | 0.05 | 48 | 994.6 |
| 20260503194522 | 17 | 172 | 4.8 | 9.7 | 0.00 | 0.05 | 0.05 | 47 | 994.5 |
| 20260503194422 | 17 | 142 | 4.8 | 9.7 | 0.00 | 0.05 | 0.05 | 48 | 994.5 |
| 20260503194322 | 17 | 145 | 4.8 | 8.0 | 0.00 | 0.05 | 0.05 | 48 | 994.6 |
| 20260503194222 | 17 | 158 | 4.8 | 9.7 | 0.00 | 0.05 | 0.05 | 47 | 994.7 |
| 20260503194122 | 17 | 145 | 4.8 | 9.7 | 0.00 | 0.05 | 0.05 | 47 | 994.7 |
| 20260503194022 | 17 | 154 | 4.8 | 9.7 | 0.00 | 0.05 | 0.05 | 48 | 994.5 |
| 20260503193922 | 17 | 147 | 4.8 | 8.0 | 0.00 | 0.05 | 0.05 | 48 | 994.6 |
| 20260503193822 | 17 | 163 | 4.8 | 8.0 | 0.00 | 0.05 | 0.05 | 47 | 994.6 |
| 20260503193722 | 17 | 136 | 4.8 | 8.0 | 0.00 | 0.05 | 0.05 | 47 | 994.5 |
| 20260503193622 | 17 | 141 | 4.8 | 8.0 | 0.00 | 0.05 | 0.05 | 47 | 994.5 |
| 20260503193522 | 17 | 123 | 4.8 | 9.7 | 0.00 | 0.05 | 0.05 | 47 | 994.6 |
| 20260503193422 | 17 | 150 | 4.8 | 9.7 | 0.00 | 0.05 | 0.05 | 47 | 994.5 |
| 20260503193322 | 17 | 145 | 3.2 | 8.0 | 0.00 | 0.05 | 0.05 | 48 | 994.6 |
| 20260503193222 | 17 | 135 | 3.2 | 8.0 | 0.00 | 0.05 | 0.05 | 48 | 994.8 |
| 20260503193122 | 17 | 135 | 3.2 | 8.0 | 0.00 | 0.05 | 0.05 | 48 | 994.7 |
| 20260503193021 | 17 | 135 | 3.2 | 4.8 | 0.00 | 0.05 | 0.05 | 48 | 994.8 |
| 20260503192921 | 17 | 150 | 3.2 | 8.0 | 0.00 | 0.05 | 0.05 | 48 | 994.7 |
| 20260503192821 | 17 | 143 | 4.8 | 8.0 | 0.00 | 0.05 | 0.05 | 47 | 994.8 |
| 20260503192721 | 17 | 158 | 3.2 | 4.8 | 0.00 | 0.05 | 0.05 | 48 | 994.7 |
| 20260503192621 | 17 | 175 | 3.2 | 8.0 | 0.00 | 0.05 | 0.05 | 47 | 994.6 |
| 20260503192521 | 17 | 167 | 3.2 | 8.0 | 0.00 | 0.05 | 0.05 | 47 | 994.7 |
| 20260503192421 | 17 | 158 | 3.2 | 4.8 | 0.00 | 0.05 | 0.05 | 47 | 994.7 |
| 20260503192321 | 17 | 158 | 3.2 | 4.8 | 0.00 | 0.05 | 0.05 | 47 | 994.7 |
| 20260503192221 | 17 | 149 | 1.6 | 3.2 | 0.00 | 0.05 | 0.05 | 48 | 994.7 |
| 20260503192121 | 17 | 136 | 3.2 | 3.2 | 0.00 | 0.05 | 0.05 | 48 | 994.8 |
| 20260503192021 | 17 | 156 | 3.2 | 3.2 | 0.00 | 0.05 | 0.05 | 49 | 994.8 |
| 20260503191921 | 17 | 147 | 1.6 | 3.2 | 0.00 | 0.05 | 0.05 | 49 | 994.7 |
| 20260503191821 | 17 | 135 | 1.6 | 3.2 | 0.00 | 0.05 | 0.05 | 49 | 994.7 |
| 20260503191721 | 17 | 121 | 1.6 | 1.6 | 0.00 | 0.05 | 0.05 | 49 | 994.8 |
| 20260503191621 | 17 | 134 | 0.0 | 1.6 | 0.00 | 0.05 | 0.05 | 49 | 995.0 |
| 20260503191521 | 17 | 135 | 0.0 | 1.6 | 0.00 | 0.05 | 0.05 | 49 | 995.0 |
| 20260503191421 | 17 | 128 | 0.0 | 1.6 | 0.00 | 0.05 | 0.05 | 49 | 995.0 |
| 20260503191323 | 17 | 128 | 1.6 | 3.2 | 0.00 | 0.05 | 0.05 | 49 | 994.9 |
| 20260503191223 | 17 | 137 | 0.0 | 3.2 | 0.00 | 0.05 | 0.05 | 49 | 995.0 |
| 20260503191123 | 17 | 121 | 0.0 | 1.6 | 0.00 | 0.05 | 0.05 | 48 | 994.9 |
| 20260503191023 | 17 | 125 | 1.6 | 1.6 | 0.00 | 0.05 | 0.05 | 48 | 995.0 |
| 20260503190922 | 17 | 97 | 0.0 | 1.6 | 0.00 | 0.05 | 0.05 | 48 | 995.1 |
| 20260503190822 | 17 | 133 | 0.0 | 1.6 | 0.00 | 0.05 | 0.05 | 49 | 995.0 |
| 20260503190722 | 17 | 123 | 0.0 | 1.6 | 0.00 | 0.05 | 0.05 | 49 | 995.0 |
| 20260503190622 | 17 | 112 | 0.0 | 1.6 | 0.00 | 0.05 | 0.05 | 49 | 995.0 |
| 20260503190522 | 17 | 124 | 0.0 | 1.6 | 0.00 | 0.05 | 0.05 | 49 | 995.0 |
| 20260503190422 | 17 | 120 | 0.0 | 1.6 | 0.00 | 0.05 | 0.05 | 49 | 995.0 |
| 20260503190322 | 17 | 130 | 0.0 | 1.6 | 0.00 | 0.05 | 0.05 | 49 | 995.0 |
| 20260503190222 | 17 | 112 | 0.0 | 1.6 | 0.00 | 0.05 | 0.05 | 49 | 995.0 |
| 20260503190122 | 17 | 112 | 0.0 | 1.6 | 0.00 | 0.05 | 0.05 | 48 | 994.9 |
| 20260503190022 | 17 | 120 | 0.0 | 0.0 | 0.00 | 0.05 | 0.05 | 48 | 994.9 |
| 20260503185922 | 17 | 135 | 0.0 | 3.2 | 0.00 | 0.05 | 0.05 | 48 | 995.0 |
| 20260503185822 | 17 | 121 | 0.0 | 3.2 | 0.00 | 0.05 | 0.05 | 48 | 995.0 |
| 20260503185722 | 17 | 110 | 0.0 | 1.6 | 0.00 | 0.05 | 0.05 | 48 | 995.0 |
| 20260503185622 | 17 | 90 | 0.0 | 1.6 | 0.00 | 0.05 | 0.05 | 48 | 994.9 |
| 20260503185522 | 17 | 90 | 0.0 | 0.0 | 0.00 | 0.05 | 0.05 | 48 | 994.8 |
| 20260503185422 | 18 | 90 | 0.0 | 0.0 | 0.00 | 0.05 | 0.05 | 47 | 995.0 |
| 20260503185322 | 18 | 90 | 0.0 | 0.0 | 0.00 | 0.05 | 0.05 | 48 | 994.9 |
| 20260503185222 | 18 | 90 | 0.0 | 0.0 | 0.00 | 0.05 | 0.05 | 47 | 994.9 |
| 20260503185122 | 18 | 90 | 0.0 | 1.6 | 0.00 | 0.05 | 0.05 | 47 | 995.0 |
| 20260503185022 | 18 | 90 | 0.0 | 1.6 | 0.00 | 0.05 | 0.05 | 47 | 995.0 |
| 20260503184922 | 18 | 90 | 0.0 | 0.0 | 0.00 | 0.05 | 0.05 | 47 | 995.0 |
| 20260503184821 | 18 | 90 | 0.0 | 0.0 | 0.00 | 0.05 | 0.05 | 47 | 995.0 |
| 20260503184721 | 18 | 90 | 0.0 | 0.0 | 0.00 | 0.05 | 0.05 | 46 | 995.1 |
| 20260503184621 | 18 | 90 | 0.0 | 0.0 | 0.00 | 0.05 | 0.05 | 47 | 995.0 |
| 20260503184521 | 18 | 90 | 0.0 | 0.0 | 0.00 | 0.05 | 0.05 | 47 | 994.9 |
| 20260503184421 | 18 | 90 | 0.0 | 0.0 | 0.00 | 0.05 | 0.05 | 47 | 994.8 |
| 20260503184321 | 18 | 90 | 0.0 | 0.0 | 0.00 | 0.05 | 0.05 | 46 | 994.9 |
| 20260503184221 | 18 | 90 | 0.0 | 0.0 | 0.00 | 0.05 | 0.05 | 46 | 994.8 |
| 20260503184121 | 18 | 90 | 0.0 | 0.0 | 0.00 | 0.05 | 0.05 | 46 | 994.9 |
| 20260503184021 | 18 | 90 | 0.0 | 0.0 | 0.00 | 0.05 | 0.05 | 46 | 994.9 |
| 20260503183921 | 18 | 90 | 0.0 | 0.0 | 0.00 | 0.05 | 0.05 | 46 | 995.0 |
| 20260503183821 | 18 | 90 | 0.0 | 0.0 | 0.00 | 0.05 | 0.05 | 46 | 994.9 |
| 20260503183721 | 18 | 90 | 0.0 | 1.6 | 0.00 | 0.05 | 0.05 | 46 | 994.9 |
| 20260503183621 | 18 | 86 | 0.0 | 1.6 | 0.00 | 0.05 | 0.05 | 46 | 994.9 |
| 20260503183521 | 18 | 2 | 0.0 | 1.6 | 0.00 | 0.05 | 0.05 | 46 | 995.0 |
| 20260503183421 | 18 | 323 | 0.0 | 3.2 | 0.00 | 0.05 | 0.05 | 46 | 994.8 |
| 20260503183321 | 18 | 270 | 0.0 | 3.2 | 0.00 | 0.05 | 0.05 | 46 | 995.0 |
| 20260503183221 | 18 | 270 | 0.0 | 1.6 | 0.00 | 0.05 | 0.05 | 46 | 995.0 |
| 20260503183123 | 18 | 270 | 0.0 | 1.6 | 0.00 | 0.05 | 0.05 | 46 | 995.0 |
| 20260503183023 | 18 | 270 | 1.6 | 4.8 | 0.00 | 0.05 | 0.05 | 45 | 994.9 |
| 20260503182923 | 18 | 306 | 1.6 | 8.0 | 0.00 | 0.05 | 0.05 | 46 | 995.0 |
| 20260503182822 | 18 | 314 | 1.6 | 8.0 | 0.00 | 0.05 | 0.05 | 46 | 994.9 |
| 20260503182722 | 18 | 293 | 0.0 | 8.0 | 0.00 | 0.05 | 0.05 | 46 | 995.0 |
| 20260503182622 | 18 | 279 | 0.0 | 1.6 | 0.00 | 0.05 | 0.05 | 46 | 995.0 |
| 20260503182522 | 18 | 282 | 0.0 | 1.6 | 0.00 | 0.05 | 0.05 | 45 | 995.0 |
| 20260503182422 | 18 | 266 | 1.6 | 3.2 | 0.00 | 0.05 | 0.05 | 45 | 995.0 |
| 20260503182322 | 18 | 248 | 1.6 | 3.2 | 0.00 | 0.05 | 0.05 | 45 | 994.7 |
| 20260503182222 | 18 | 248 | 1.6 | 3.2 | 0.00 | 0.05 | 0.05 | 45 | 994.8 |
| 20260503182122 | 18 | 282 | 0.0 | 1.6 | 0.00 | 0.05 | 0.05 | 45 | 994.9 |
| 20260503182022 | 18 | 308 | 0.0 | 1.6 | 0.00 | 0.05 | 0.05 | 45 | 994.9 |
| 20260503181922 | 18 | 292 | 0.0 | 1.6 | 0.00 | 0.05 | 0.05 | 45 | 994.9 |
| 20260503181822 | 18 | 306 | 0.0 | 1.6 | 0.00 | 0.05 | 0.05 | 44 | 994.9 |
| 20260503181722 | 18 | 354 | 0.0 | 1.6 | 0.00 | 0.05 | 0.05 | 45 | 994.8 |
| 20260503181622 | 18 | 340 | 0.0 | 1.6 | 0.00 | 0.05 | 0.05 | 45 | 994.9 |
| 20260503181522 | 18 | 292 | 1.6 | 1.6 | 0.00 | 0.05 | 0.05 | 45 | 994.9 |
| 20260503181422 | 18 | 273 | 1.6 | 9.7 | 0.00 | 0.05 | 0.05 | 44 | 994.9 |
| 20260503181322 | 18 | 285 | 1.6 | 9.7 | 0.00 | 0.05 | 0.05 | 44 | 994.9 |
| 20260503181222 | 18 | 264 | 1.6 | 3.2 | 0.00 | 0.05 | 0.05 | 45 | 994.8 |
| 20260503181122 | 18 | 284 | 1.6 | 3.2 | 0.00 | 0.05 | 0.05 | 44 | 994.7 |
| 20260503181022 | 18 | 299 | 1.6 | 3.2 | 0.00 | 0.05 | 0.05 | 44 | 994.8 |
| 20260503180922 | 18 | 275 | 1.6 | 1.6 | 0.00 | 0.05 | 0.05 | 44 | 994.8 |
| 20260503180822 | 18 | 306 | 1.6 | 1.6 | 0.00 | 0.05 | 0.05 | 44 | 994.7 |
| 20260503180722 | 18 | 315 | 1.6 | 3.2 | 0.00 | 0.05 | 0.05 | 44 | 994.8 |
| 20260503180622 | 18 | 274 | 1.6 | 3.2 | 0.00 | 0.05 | 0.05 | 44 | 994.9 |
| 20260503180522 | 18 | 356 | 0.0 | 1.6 | 0.00 | 0.05 | 0.05 | 43 | 994.9 |
| 20260503180422 | 18 | 98 | 0.0 | 3.2 | 0.00 | 0.05 | 0.05 | 43 | 994.8 |
| 20260503180322 | 18 | 301 | 1.6 | 3.2 | 0.00 | 0.05 | 0.05 | 43 | 994.7 |
| 20260503180222 | 18 | 314 | 1.6 | 3.2 | 0.00 | 0.05 | 0.05 | 43 | 994.8 |
| 20260503180121 | 18 | 294 | 1.6 | 3.2 | 0.00 | 0.05 | 0.05 | 43 | 994.9 |
| 20260503180021 | 19 | 84 | 1.6 | 3.2 | 0.00 | 0.05 | 0.05 | 43 | 994.7 |
| 20260503175921 | 19 | 44 | 1.6 | 3.2 | 0.00 | 0.05 | 0.05 | 43 | 994.7 |
| 20260503175821 | 19 | 297 | 0.0 | 3.2 | 0.00 | 0.05 | 0.05 | 44 | 994.7 |
| 20260503175722 | 19 | 320 | 0.0 | 1.6 | 0.00 | 0.05 | 0.05 | 44 | 994.7 |
| 20260503175621 | 19 | 297 | 0.0 | 3.2 | 0.00 | 0.05 | 0.05 | 44 | 994.8 |
| 20260503175521 | 19 | 258 | 0.0 | 3.2 | 0.00 | 0.05 | 0.05 | 43 | 994.7 |
| 20260503175421 | 19 | 201 | 0.0 | 1.6 | 0.00 | 0.05 | 0.05 | 44 | 994.6 |
| 20260503175321 | 19 | 223 | 0.0 | 3.2 | 0.00 | 0.05 | 0.05 | 43 | 994.7 |
| 20260503175221 | 19 | 270 | 1.6 | 4.8 | 0.00 | 0.05 | 0.05 | 43 | 994.8 |
| 20260503175121 | 19 | 270 | 0.0 | 1.6 | 0.00 | 0.05 | 0.05 | 43 | 994.7 |
| 20260503175021 | 19 | 282 | 0.0 | 3.2 | 0.00 | 0.05 | 0.05 | 43 | 994.7 |
| 20260503174921 | 19 | 292 | 1.6 | 3.2 | 0.00 | 0.05 | 0.05 | 43 | 994.8 |
| 20260503174821 | 19 | 227 | 1.6 | 3.2 | 0.00 | 0.05 | 0.05 | 42 | 994.7 |
| 20260503174721 | 19 | 144 | 1.6 | 3.2 | 0.00 | 0.05 | 0.05 | 43 | 994.7 |
| 20260503174621 | 19 | 339 | 0.0 | 1.6 | 0.00 | 0.05 | 0.05 | 43 | 994.7 |
| 20260503174521 | 19 | 292 | 0.0 | 1.6 | 0.00 | 0.05 | 0.05 | 42 | 994.8 |
| 20260503174421 | 19 | 299 | 0.0 | 1.6 | 0.00 | 0.05 | 0.05 | 42 | 994.7 |
| 20260503174321 | 19 | 28 | 1.6 | 3.2 | 0.00 | 0.05 | 0.05 | 42 | 994.8 |
| 20260503174221 | 19 | 297 | 1.6 | 3.2 | 0.00 | 0.05 | 0.05 | 42 | 994.7 |
| 20260503174121 | 19 | 312 | 1.6 | 3.2 | 0.00 | 0.05 | 0.05 | 42 | 994.6 |
| 20260503174023 | 19 | 338 | 0.0 | 3.2 | 0.00 | 0.05 | 0.05 | 43 | 994.7 |
| 20260503173923 | 19 | 359 | 0.0 | 1.6 | 0.00 | 0.05 | 0.05 | 42 | 994.6 |
| 20260503173823 | 19 | 291 | 0.0 | 3.2 | 0.00 | 0.05 | 0.05 | 42 | 994.6 |
| 20260503173723 | 19 | 331 | 1.6 | 3.2 | 0.00 | 0.05 | 0.05 | 43 | 994.6 |
| 20260503173623 | 19 | 357 | 0.0 | 3.2 | 0.00 | 0.05 | 0.05 | 43 | 994.7 |
| 20260503173522 | 19 | 101 | 0.0 | 1.6 | 0.00 | 0.05 | 0.05 | 42 | 994.5 |
| 20260503173422 | 19 | 62 | 0.0 | 1.6 | 0.00 | 0.05 | 0.05 | 42 | 994.6 |
| 20260503173322 | 19 | 314 | 1.6 | 3.2 | 0.00 | 0.05 | 0.05 | 42 | 994.6 |
| 20260503173222 | 19 | 292 | 1.6 | 4.8 | 0.00 | 0.05 | 0.05 | 43 | 994.5 |
| 20260503173122 | 19 | 271 | 1.6 | 4.8 | 0.00 | 0.05 | 0.05 | 42 | 994.6 |
| 20260503173022 | 19 | 242 | 1.6 | 4.8 | 0.00 | 0.05 | 0.05 | 42 | 994.6 |
| 20260503172922 | 20 | 229 | 0.0 | 4.8 | 0.00 | 0.05 | 0.05 | 43 | 994.5 |
| 20260503172822 | 20 | 302 | 1.6 | 3.2 | 0.00 | 0.05 | 0.05 | 43 | 994.5 |
| 20260503172722 | 20 | 338 | 1.6 | 3.2 | 0.00 | 0.05 | 0.05 | 43 | 994.5 |
| 20260503172622 | 20 | 338 | 1.6 | 3.2 | 0.00 | 0.05 | 0.05 | 43 | 994.4 |
| 20260503172522 | 20 | 353 | 0.0 | 3.2 | 0.00 | 0.05 | 0.05 | 43 | 994.4 |
| 20260503172422 | 20 | 290 | 1.6 | 3.2 | 0.00 | 0.05 | 0.05 | 43 | 994.5 |
| 20260503172322 | 20 | 285 | 0.0 | 3.2 | 0.00 | 0.05 | 0.05 | 43 | 994.5 |
| 20260503172222 | 20 | 313 | 0.0 | 1.6 | 0.00 | 0.05 | 0.05 | 43 | 994.6 |
| 20260503172122 | 20 | 9 | 1.6 | 3.2 | 0.00 | 0.05 | 0.05 | 43 | 994.4 |
| 20260503172022 | 20 | 290 | 1.6 | 3.2 | 0.00 | 0.05 | 0.05 | 43 | 994.5 |
| 20260503171922 | 20 | 321 | 1.6 | 3.2 | 0.00 | 0.05 | 0.05 | 42 | 994.5 |
| 20260503171822 | 20 | 327 | 1.6 | 3.2 | 0.00 | 0.05 | 0.05 | 42 | 994.4 |
| 20260503171722 | 20 | 35 | 1.6 | 1.6 | 0.00 | 0.05 | 0.05 | 43 | 994.4 |
| 20260503171622 | 20 | 270 | 0.0 | 1.6 | 0.00 | 0.05 | 0.05 | 43 | 994.4 |
| 20260503171522 | 20 | 282 | 0.0 | 1.6 | 0.00 | 0.05 | 0.05 | 43 | 994.4 |
| 20260503171422 | 20 | 299 | 0.0 | 3.2 | 0.00 | 0.05 | 0.05 | 42 | 994.5 |
| 20260503171321 | 20 | 330 | 1.6 | 4.8 | 0.00 | 0.05 | 0.05 | 42 | 994.5 |
| 20260503171222 | 20 | 159 | 1.6 | 4.8 | 0.00 | 0.05 | 0.05 | 42 | 994.4 |
| 20260503171121 | 20 | 292 | 0.0 | 3.2 | 0.00 | 0.05 | 0.05 | 43 | 994.4 |
| 20260503171021 | 20 | 281 | 0.0 | 1.6 | 0.00 | 0.05 | 0.05 | 43 | 994.4 |
| 20260503170921 | 20 | 332 | 0.0 | 1.6 | 0.00 | 0.05 | 0.05 | 43 | 994.3 |
| 20260503170821 | 20 | 293 | 0.0 | 1.6 | 0.00 | 0.05 | 0.05 | 44 | 994.4 |
| 20260503170721 | 20 | 292 | 0.0 | 3.2 | 0.00 | 0.05 | 0.05 | 43 | 994.4 |
| 20260503170621 | 20 | 292 | 0.0 | 3.2 | 0.00 | 0.05 | 0.05 | 42 | 994.4 |
| 20260503170521 | 20 | 274 | 1.6 | 4.8 | 0.00 | 0.05 | 0.05 | 42 | 994.4 |
| 20260503170421 | 20 | 276 | 1.6 | 4.8 | 0.00 | 0.05 | 0.05 | 43 | 994.5 |
| 20260503170321 | 20 | 292 | 0.0 | 1.6 | 0.00 | 0.05 | 0.05 | 43 | 994.4 |
| 20260503170221 | 20 | 280 | 0.0 | 1.6 | 0.00 | 0.05 | 0.05 | 43 | 994.4 |
| 20260503170121 | 20 | 255 | 0.0 | 1.6 | 0.00 | 0.05 | 0.05 | 44 | 994.4 |
| 20260503160123 | 21 | 248 | 3.2 | 12.9 | 0.00 | 0.05 | 0.05 | 39 | 994.0 |
| 20260503150923 | 23 | 285 | 11.3 | 20.9 | 0.00 | 0.05 | 0.05 | 36 | 993.1 |
| 20260503150823 | 23 | 292 | 8.0 | 22.5 | 0.00 | 0.05 | 0.05 | 39 | 993.0 |
| 20260503150722 | 23 | 135 | 3.2 | 9.7 | 0.00 | 0.05 | 0.05 | 42 | 992.9 |
| 20260503150622 | 23 | 270 | 1.6 | 8.0 | 0.00 | 0.05 | 0.05 | 41 | 992.9 |
| 20260503150522 | 24 | 234 | 1.6 | 4.8 | 0.00 | 0.05 | 0.05 | 40 | 992.9 |
| 20260503150422 | 24 | 204 | 1.6 | 4.8 | 0.00 | 0.05 | 0.05 | 40 | 992.9 |
| 20260503150322 | 24 | 248 | 1.6 | 4.8 | 0.00 | 0.05 | 0.05 | 40 | 992.7 |
| 20260503150222 | 24 | 248 | 1.6 | 4.8 | 0.00 | 0.05 | 0.05 | 40 | 992.9 |
| 20260503150122 | 24 | 248 | 1.6 | 4.8 | 0.00 | 0.05 | 0.05 | 41 | 993.0 |
| 20260503140222 | 24 | 270 | 3.2 | 8.0 | 0.00 | 0.05 | 0.05 | 39 | 993.0 |
| 20260503140122 | 24 | 270 | 3.2 | 8.0 | 0.00 | 0.05 | 0.05 | 39 | 993.1 |
| 20260503131321 | 25 | 310 | 1.6 | 4.8 | 0.00 | 0.05 | 0.05 | 40 | 993.6 |
| 20260503131221 | 25 | 313 | 0.0 | 4.8 | 0.00 | 0.05 | 0.05 | 39 | 993.7 |
| 20260503131121 | 25 | 0 | 0.0 | 1.6 | 0.00 | 0.05 | 0.05 | 39 | 993.7 |
| 20260503131021 | 25 | 338 | 1.6 | 3.2 | 0.00 | 0.05 | 0.05 | 40 | 993.7 |
| 20260503130921 | 25 | 318 | 0.0 | 3.2 | 0.00 | 0.05 | 0.05 | 40 | 993.5 |
| 20260503130821 | 25 | 291 | 1.6 | 9.7 | 0.00 | 0.05 | 0.05 | 40 | 993.7 |
| 20260503130721 | 25 | 265 | 3.2 | 9.7 | 0.00 | 0.05 | 0.05 | 39 | 993.7 |
| 20260503130621 | 26 | 119 | 1.6 | 4.8 | 0.00 | 0.05 | 0.05 | 38 | 993.7 |
| 20260503130521 | 26 | 57 | 0.0 | 4.8 | 0.00 | 0.05 | 0.05 | 38 | 993.6 |
| 20260503130421 | 26 | 49 | 1.6 | 3.2 | 0.00 | 0.05 | 0.05 | 39 | 993.7 |
| 20260503130321 | 26 | 112 | 1.6 | 3.2 | 0.00 | 0.05 | 0.05 | 39 | 993.7 |
| 20260503130221 | 26 | 112 | 1.6 | 3.2 | 0.00 | 0.05 | 0.05 | 39 | 993.7 |
| 20260503130121 | 25 | 261 | 0.0 | 3.2 | 0.00 | 0.05 | 0.05 | 41 | 993.6 |
| 20260503120222 | 24 | 98 | 0.0 | 3.2 | 0.00 | 0.05 | 0.05 | 40 | 994.3 |
| 20260503120122 | 24 | 154 | 1.6 | 4.8 | 0.00 | 0.05 | 0.05 | 40 | 994.3 |
| 20260503110821 | 22 | 165 | 0.0 | 1.6 | 0.00 | 0.05 | 0.05 | 44 | 994.7 |
| 20260503110721 | 22 | 3 | 0.0 | 3.2 | 0.00 | 0.05 | 0.05 | 44 | 994.6 |
| 20260503110621 | 22 | 125 | 0.0 | 3.2 | 0.00 | 0.05 | 0.05 | 44 | 994.7 |
| 20260503110521 | 22 | 104 | 0.0 | 1.6 | 0.00 | 0.05 | 0.05 | 45 | 994.7 |
| 20260503110421 | 22 | 359 | 0.0 | 3.2 | 0.00 | 0.05 | 0.05 | 45 | 994.7 |
| 20260503110321 | 22 | 305 | 0.0 | 3.2 | 0.00 | 0.05 | 0.05 | 45 | 994.7 |
| 20260503110221 | 22 | 315 | 0.0 | 1.6 | 0.00 | 0.05 | 0.05 | 45 | 994.6 |
| 20260503110121 | 22 | 189 | 1.6 | 4.8 | 0.00 | 0.05 | 0.05 | 44 | 994.7 |
| 20260503100222 | 22 | 103 | 1.6 | 4.8 | 0.00 | 0.05 | 0.05 | 44 | 995.0 |
| 20260503100122 | 22 | 124 | 1.6 | 4.8 | 0.00 | 0.05 | 0.05 | 45 | 995.2 |
| 20260503090422 | 21 | 111 | 0.0 | 4.8 | 0.00 | 0.05 | 0.05 | 48 | 995.6 |
| 20260503090322 | 21 | 145 | 0.0 | 1.6 | 0.00 | 0.05 | 0.05 | 48 | 995.6 |
| 20260503090221 | 21 | 101 | 0.0 | 1.6 | 0.00 | 0.05 | 0.05 | 49 | 995.5 |
| 20260503090121 | 21 | 108 | 1.6 | 3.2 | 0.00 | 0.05 | 0.05 | 48 | 995.4 |
| 20260503081621 | 18 | 154 | 3.2 | 8.0 | 0.00 | 0.05 | 0.05 | 60 | 995.8 |
| 20260503081521 | 18 | 158 | 3.2 | 4.8 | 0.00 | 0.05 | 0.05 | 61 | 995.8 |
| 20260503081421 | 18 | 158 | 3.2 | 8.0 | 0.00 | 0.05 | 0.05 | 62 | 995.9 |
| 20260503081321 | 18 | 144 | 4.8 | 8.0 | 0.00 | 0.05 | 0.05 | 61 | 995.8 |
| 20260503081221 | 18 | 185 | 4.8 | 9.7 | 0.00 | 0.05 | 0.05 | 61 | 995.8 |
| 20260503081121 | 18 | 201 | 4.8 | 9.7 | 0.00 | 0.05 | 0.05 | 61 | 995.6 |
| 20260503081021 | 18 | 180 | 4.8 | 8.0 | 0.00 | 0.05 | 0.05 | 62 | 995.7 |
| 20260503080921 | 18 | 152 | 4.8 | 8.0 | 0.00 | 0.05 | 0.05 | 61 | 995.6 |
| 20260503080821 | 18 | 161 | 4.8 | 11.3 | 0.00 | 0.05 | 0.05 | 63 | 995.7 |
| 20260503080721 | 18 | 129 | 8.0 | 11.3 | 0.00 | 0.05 | 0.05 | 63 | 995.8 |
| 20260503080621 | 18 | 137 | 4.8 | 8.0 | 0.00 | 0.05 | 0.05 | 63 | 995.6 |
| 20260503080523 | 18 | 141 | 4.8 | 11.3 | 0.00 | 0.05 | 0.05 | 63 | 995.6 |
| 20260503080423 | 18 | 115 | 4.8 | 11.3 | 0.00 | 0.05 | 0.05 | 63 | 995.7 |
| 20260503080323 | 18 | 112 | 3.2 | 9.7 | 0.00 | 0.05 | 0.05 | 63 | 995.7 |
| 20260503080223 | 18 | 134 | 4.8 | 12.9 | 0.00 | 0.05 | 0.05 | 63 | 995.7 |
| 20260503080122 | 18 | 158 | 8.0 | 12.9 | 0.00 | 0.05 | 0.05 | 63 | 995.7 |
| 20260503072921 | 16 | 158 | 4.8 | 8.0 | 0.00 | 0.05 | 0.05 | 70 | 995.7 |
| 20260503072821 | 16 | 158 | 4.8 | 8.0 | 0.00 | 0.05 | 0.05 | 70 | 995.8 |
| 20260503072721 | 15 | 153 | 3.2 | 8.0 | 0.00 | 0.05 | 0.05 | 72 | 995.9 |
| 20260503072621 | 15 | 135 | 1.6 | 3.2 | 0.00 | 0.05 | 0.05 | 73 | 995.7 |
| 20260503072521 | 15 | 131 | 0.0 | 3.2 | 0.00 | 0.05 | 0.05 | 74 | 995.7 |
| 20260503072423 | 15 | 106 | 0.0 | 0.0 | 0.00 | 0.05 | 0.05 | 74 | 995.7 |
| 20260503072323 | 15 | 1 | 0.0 | 0.0 | 0.00 | 0.05 | 0.05 | 76 | 995.7 |
| 20260503072223 | 15 | 73 | 0.0 | 0.0 | 0.00 | 0.05 | 0.05 | 75 | 995.7 |
| 20260503072123 | 15 | 75 | 0.0 | 0.0 | 0.00 | 0.05 | 0.05 | 76 | 995.8 |
| 20260503072023 | 15 | 71 | 0.0 | 0.0 | 0.00 | 0.05 | 0.05 | 76 | 995.7 |
| 20260503071923 | 15 | 95 | 0.0 | 1.6 | 0.00 | 0.05 | 0.05 | 74 | 995.8 |
| 20260503071822 | 15 | 131 | 1.6 | 3.2 | 0.00 | 0.05 | 0.05 | 74 | 995.8 |
| 20260503071722 | 15 | 135 | 1.6 | 3.2 | 0.00 | 0.05 | 0.05 | 74 | 995.9 |
| 20260503071622 | 15 | 152 | 3.2 | 8.0 | 0.00 | 0.05 | 0.05 | 73 | 995.8 |
| 20260503071522 | 15 | 144 | 4.8 | 9.7 | 0.00 | 0.05 | 0.05 | 73 | 995.8 |
| 20260503071422 | 15 | 158 | 4.8 | 9.7 | 0.03 | 0.05 | 0.05 | 73 | 995.8 |
| 20260503071322 | 15 | 177 | 8.0 | 11.3 | 0.03 | 0.05 | 0.05 | 74 | 995.8 |
| 20260503071222 | 15 | 142 | 8.0 | 11.3 | 0.03 | 0.05 | 0.05 | 74 | 995.6 |
| 20260503071122 | 15 | 127 | 4.8 | 11.3 | 0.03 | 0.05 | 0.05 | 73 | 995.6 |
| 20260503071022 | 15 | 158 | 4.8 | 11.3 | 0.03 | 0.05 | 0.05 | 75 | 995.6 |
| 20260503070922 | 15 | 158 | 1.6 | 8.0 | 0.03 | 0.05 | 0.05 | 74 | 995.8 |
| 20260503070822 | 15 | 141 | 1.6 | 4.8 | 0.03 | 0.05 | 0.05 | 72 | 995.7 |
| 20260503070722 | 15 | 147 | 3.2 | 3.2 | 0.03 | 0.05 | 0.05 | 70 | 995.7 |
| 20260503070622 | 15 | 106 | 3.2 | 8.0 | 0.03 | 0.05 | 0.05 | 69 | 995.5 |
| 20260503070522 | 15 | 131 | 4.8 | 8.0 | 0.03 | 0.05 | 0.05 | 71 | 995.5 |
| 20260503070422 | 15 | 138 | 4.8 | 8.0 | 0.03 | 0.05 | 0.05 | 71 | 995.5 |
| 20260503070322 | 15 | 167 | 3.2 | 4.8 | 0.03 | 0.05 | 0.05 | 72 | 995.6 |
| 20260503070222 | 15 | 179 | 3.2 | 4.8 | 0.03 | 0.05 | 0.05 | 71 | 995.5 |
| 20260503070122 | 15 | 160 | 4.8 | 4.8 | 0.03 | 0.05 | 0.05 | 72 | 995.7 |
| 20260503060321 | 15 | 258 | 0.0 | 1.6 | 0.00 | 0.03 | 0.03 | 77 | 995.3 |
| 20260503060221 | 15 | 207 | 0.0 | 0.0 | 0.00 | 0.03 | 0.03 | 76 | 995.3 |
| 20260503060121 | 15 | 158 | 0.0 | 3.2 | 0.00 | 0.03 | 0.03 | 75 | 995.3 |
| 20260503055121 | 15 | 170 | 3.2 | 3.2 | 0.00 | 0.03 | 0.03 | 74 | 995.2 |
| 20260503055021 | 15 | 146 | 3.2 | 4.8 | 0.03 | 0.03 | 0.03 | 74 | 995.2 |
| 20260503054921 | 15 | 148 | 3.2 | 4.8 | 0.03 | 0.03 | 0.03 | 74 | 995.2 |
| 20260503054821 | 15 | 151 | 1.6 | 4.8 | 0.03 | 0.03 | 0.03 | 74 | 995.3 |
| 20260503054720 | 14 | 159 | 1.6 | 4.8 | 0.03 | 0.03 | 0.03 | 75 | 995.3 |
| 20260503054622 | 14 | 170 | 1.6 | 4.8 | 0.03 | 0.03 | 0.03 | 75 | 995.3 |
| 20260503054522 | 14 | 157 | 1.6 | 3.2 | 0.03 | 0.03 | 0.03 | 76 | 995.2 |
| 20260503054422 | 13 | 136 | 3.2 | 3.2 | 0.03 | 0.03 | 0.03 | 77 | 995.2 |
| 20260503054322 | 13 | 135 | 3.2 | 4.8 | 0.03 | 0.03 | 0.03 | 78 | 995.2 |
| 20260503054222 | 13 | 135 | 3.2 | 4.8 | 0.03 | 0.03 | 0.03 | 78 | 995.2 |
| 20260503054122 | 13 | 145 | 1.6 | 3.2 | 0.03 | 0.03 | 0.03 | 80 | 995.3 |
| 20260503054022 | 13 | 141 | 0.0 | 1.6 | 0.03 | 0.03 | 0.03 | 80 | 995.3 |
| 20260503053922 | 13 | 158 | 1.6 | 1.6 | 0.03 | 0.03 | 0.03 | 80 | 995.1 |
| 20260503053822 | 13 | 144 | 0.0 | 1.6 | 0.03 | 0.03 | 0.03 | 80 | 995.1 |
| 20260503053722 | 13 | 356 | 0.0 | 0.0 | 0.03 | 0.03 | 0.03 | 81 | 995.2 |
| 20260503053622 | 13 | 323 | 0.0 | 0.0 | 0.03 | 0.03 | 0.03 | 81 | 995.1 |
| 20260503053522 | 13 | 292 | 0.0 | 0.0 | 0.03 | 0.03 | 0.03 | 81 | 995.1 |
| 20260503053422 | 13 | 292 | 0.0 | 0.0 | 0.03 | 0.03 | 0.03 | 80 | 995.2 |
| 20260503053322 | 13 | 278 | 0.0 | 0.0 | 0.03 | 0.03 | 0.03 | 80 | 995.2 |
| 20260503053222 | 13 | 284 | 0.0 | 0.0 | 0.03 | 0.03 | 0.03 | 79 | 995.2 |
| 20260503053122 | 13 | 285 | 0.0 | 0.0 | 0.03 | 0.03 | 0.03 | 79 | 995.2 |
| 20260503053022 | 13 | 338 | 0.0 | 0.0 | 0.03 | 0.03 | 0.03 | 80 | 995.2 |
| 20260503052922 | 13 | 338 | 0.0 | 0.0 | 0.03 | 0.03 | 0.03 | 80 | 995.1 |
| 20260503052822 | 13 | 330 | 0.0 | 0.0 | 0.03 | 0.03 | 0.03 | 81 | 995.2 |
| 20260503052721 | 13 | 315 | 0.0 | 0.0 | 0.03 | 0.03 | 0.03 | 80 | 995.2 |
| 20260503052621 | 13 | 315 | 0.0 | 0.0 | 0.03 | 0.03 | 0.03 | 80 | 995.2 |
| 20260503052521 | 13 | 315 | 0.0 | 0.0 | 0.03 | 0.03 | 0.03 | 81 | 995.2 |
| 20260503052421 | 13 | 315 | 0.0 | 0.0 | 0.03 | 0.03 | 0.03 | 81 | 995.4 |
| 20260503052321 | 13 | 309 | 0.0 | 0.0 | 0.03 | 0.03 | 0.03 | 81 | 995.2 |
| 20260503052221 | 13 | 292 | 0.0 | 1.6 | 0.03 | 0.03 | 0.03 | 80 | 995.3 |
| 20260503052121 | 13 | 319 | 1.6 | 1.6 | 0.03 | 0.03 | 0.03 | 80 | 995.2 |
| 20260503052021 | 13 | 75 | 0.0 | 1.6 | 0.03 | 0.03 | 0.03 | 82 | 995.1 |
| 20260503051921 | 13 | 78 | 0.0 | 1.6 | 0.03 | 0.03 | 0.03 | 82 | 995.2 |
| 20260503051821 | 13 | 22 | 0.0 | 0.0 | 0.03 | 0.03 | 0.03 | 81 | 995.2 |
| 20260503051721 | 13 | 0 | 0.0 | 0.0 | 0.03 | 0.03 | 0.03 | 81 | 995.0 |
| 20260503051621 | 13 | 352 | 0.0 | 0.0 | 0.03 | 0.03 | 0.03 | 81 | 995.0 |
| 20260503051521 | 13 | 325 | 0.0 | 0.0 | 0.03 | 0.03 | 0.03 | 80 | 994.9 |
| 20260503051421 | 13 | 292 | 0.0 | 0.0 | 0.03 | 0.03 | 0.03 | 79 | 994.8 |
| 20260503051321 | 13 | 168 | 0.0 | 0.0 | 0.03 | 0.03 | 0.03 | 78 | 994.9 |
| 20260503051221 | 13 | 113 | 0.0 | 0.0 | 0.03 | 0.03 | 0.03 | 78 | 994.8 |
| 20260503051121 | 13 | 112 | 0.0 | 0.0 | 0.03 | 0.03 | 0.03 | 78 | 994.8 |
| 20260503051021 | 13 | 121 | 0.0 | 3.2 | 0.03 | 0.03 | 0.03 | 78 | 994.7 |
| 20260503050921 | 13 | 135 | 1.6 | 4.8 | 0.03 | 0.03 | 0.03 | 77 | 994.7 |
| 20260503050821 | 13 | 135 | 0.0 | 4.8 | 0.03 | 0.03 | 0.03 | 77 | 994.8 |
| 20260503050721 | 13 | 142 | 0.0 | 0.0 | 0.03 | 0.03 | 0.03 | 78 | 994.8 |
| 20260503050621 | 13 | 198 | 0.0 | 3.2 | 0.03 | 0.03 | 0.03 | 78 | 994.9 |
| 20260503050521 | 13 | 270 | 1.6 | 3.2 | 0.03 | 0.03 | 0.03 | 77 | 994.8 |
| 20260503050421 | 13 | 270 | 1.6 | 3.2 | 0.03 | 0.03 | 0.03 | 77 | 994.7 |
| 20260503050321 | 14 | 277 | 1.6 | 4.8 | 0.03 | 0.03 | 0.03 | 77 | 994.8 |
| 20260503050220 | 14 | 280 | 1.6 | 4.8 | 0.03 | 0.03 | 0.03 | 77 | 994.8 |
| 20260503050122 | 15 | 274 | 1.6 | 3.2 | 0.03 | 0.03 | 0.03 | 76 | 994.6 |
| 20260503050022 | 15 | 291 | 0.0 | 0.0 | 0.03 | 0.03 | 0.03 | 75 | 994.5 |
| 20260503045922 | 15 | 278 | 0.0 | 0.0 | 0.03 | 0.03 | 0.03 | 73 | 994.4 |
| 20260503045822 | 15 | 187 | 0.0 | 0.0 | 0.03 | 0.03 | 0.03 | 71 | 994.4 |
| 20260503045722 | 15 | 124 | 1.6 | 4.8 | 0.03 | 0.03 | 0.03 | 70 | 994.4 |
| 20260503045622 | 15 | 93 | 1.6 | 4.8 | 0.03 | 0.03 | 0.03 | 71 | 994.6 |
| 20260503045522 | 14 | 134 | 1.6 | 4.8 | 0.03 | 0.03 | 0.03 | 71 | 994.5 |
| 20260503045422 | 13 | 118 | 3.2 | 8.0 | 0.03 | 0.03 | 0.03 | 73 | 994.4 |
| 20260503045322 | 12 | 133 | 4.8 | 11.3 | 0.03 | 0.03 | 0.03 | 76 | 994.6 |
| 20260503045222 | 12 | 158 | 1.6 | 8.0 | 0.03 | 0.03 | 0.03 | 81 | 994.6 |
| 20260503045122 | 13 | 181 | 1.6 | 8.0 | 0.03 | 0.03 | 0.03 | 83 | 994.5 |
| 20260503045022 | 13 | 332 | 3.2 | 8.0 | 0.00 | 0.00 | 0.00 | 81 | 994.5 |
| 20260503044922 | 13 | 275 | 4.8 | 8.0 | 0.00 | 0.00 | 0.00 | 80 | 994.7 |
| 20260503044822 | 13 | 338 | 3.2 | 4.8 | 0.00 | 0.00 | 0.00 | 78 | 994.7 |
| 20260503044722 | 13 | 334 | 1.6 | 4.8 | 0.00 | 0.00 | 0.00 | 78 | 994.8 |
| 20260503044622 | 13 | 331 | 0.0 | 1.6 | 0.00 | 0.00 | 0.00 | 76 | 994.8 |
| 20260503044522 | 13 | 127 | 0.0 | 1.6 | 0.00 | 0.00 | 0.00 | 75 | 994.9 |
| 20260503044422 | 13 | 135 | 1.6 | 1.6 | 0.00 | 0.00 | 0.00 | 75 | 995.0 |
| 20260503044322 | 13 | 315 | 0.0 | 1.6 | 0.00 | 0.00 | 0.00 | 76 | 994.9 |
| 20260503044222 | 13 | 315 | 0.0 | 1.6 | 0.00 | 0.00 | 0.00 | 75 | 995.0 |
| 20260503044122 | 13 | 303 | 0.0 | 1.6 | 0.00 | 0.00 | 0.00 | 74 | 995.2 |
| 20260503044022 | 13 | 268 | 0.0 | 1.6 | 0.00 | 0.00 | 0.00 | 73 | 995.2 |
| 20260503043922 | 13 | 254 | 0.0 | 1.6 | 0.00 | 0.00 | 0.00 | 74 | 995.2 |
| 20260503043821 | 13 | 270 | 1.6 | 1.6 | 0.00 | 0.00 | 0.00 | 74 | 995.2 |
| 20260503043721 | 13 | 270 | 1.6 | 4.8 | 0.00 | 0.00 | 0.00 | 73 | 995.2 |
| 20260503043621 | 14 | 269 | 3.2 | 4.8 | 0.00 | 0.00 | 0.00 | 73 | 995.2 |
| 20260503043521 | 14 | 261 | 1.6 | 4.8 | 0.00 | 0.00 | 0.00 | 73 | 995.1 |
| 20260503043421 | 15 | 270 | 1.6 | 3.2 | 0.00 | 0.00 | 0.00 | 72 | 995.2 |
| 20260503043321 | 15 | 285 | 1.6 | 4.8 | 0.00 | 0.00 | 0.00 | 72 | 995.2 |
| 20260503043221 | 15 | 264 | 0.0 | 1.6 | 0.00 | 0.00 | 0.00 | 72 | 995.0 |
| 20260503043121 | 14 | 159 | 0.0 | 1.6 | 0.00 | 0.00 | 0.00 | 71 | 995.1 |
| 20260503043021 | 14 | 144 | 1.6 | 1.6 | 0.00 | 0.00 | 0.00 | 72 | 995.0 |
| 20260503042921 | 14 | 124 | 0.0 | 1.6 | 0.00 | 0.00 | 0.00 | 71 | 994.9 |
| 20260503042821 | 14 | 161 | 0.0 | 0.0 | 0.00 | 0.00 | 0.00 | 71 | 995.0 |
| 20260503042721 | 14 | 195 | 0.0 | 0.0 | 0.00 | 0.00 | 0.00 | 72 | 994.9 |
| 20260503042621 | 14 | 225 | 0.0 | 0.0 | 0.00 | 0.00 | 0.00 | 73 | 995.0 |
| 20260503042521 | 13 | 245 | 0.0 | 0.0 | 0.00 | 0.00 | 0.00 | 72 | 995.2 |
| 20260503042421 | 13 | 251 | 0.0 | 1.6 | 0.00 | 0.00 | 0.00 | 71 | 995.0 |
| 20260503042321 | 14 | 270 | 0.0 | 1.6 | 0.00 | 0.00 | 0.00 | 72 | 994.9 |
| 20260503042221 | 14 | 270 | 0.0 | 1.6 | 0.00 | 0.00 | 0.00 | 71 | 994.8 |
| 20260503042121 | 14 | 290 | 0.0 | 1.6 | 0.00 | 0.00 | 0.00 | 71 | 994.8 |
| 20260503042021 | 14 | 290 | 0.0 | 1.6 | 0.00 | 0.00 | 0.00 | 69 | 994.8 |
| 20260503041921 | 14 | 294 | 1.6 | 1.6 | 0.00 | 0.00 | 0.00 | 69 | 994.6 |
| 20260503041821 | 15 | 338 | 1.6 | 3.2 | 0.00 | 0.00 | 0.00 | 69 | 994.7 |
| 20260503041721 | 15 | 359 | 1.6 | 3.2 | 0.00 | 0.00 | 0.00 | 68 | 994.6 |
| 20260503041621 | 15 | 11 | 1.6 | 3.2 | 0.00 | 0.00 | 0.00 | 68 | 994.7 |
| 20260503041522 | 15 | 338 | 0.0 | 1.6 | 0.00 | 0.00 | 0.00 | 66 | 994.7 |
| 20260503041422 | 15 | 184 | 0.0 | 1.6 | 0.00 | 0.00 | 0.00 | 65 | 994.7 |
| 20260503041322 | 15 | 158 | 0.0 | 1.6 | 0.00 | 0.00 | 0.00 | 64 | 994.7 |
| 20260503041222 | 15 | 142 | 0.0 | 1.6 | 0.00 | 0.00 | 0.00 | 66 | 994.7 |
| 20260503041122 | 15 | 135 | 1.6 | 1.6 | 0.00 | 0.00 | 0.00 | 66 | 994.6 |
| 20260503041022 | 14 | 152 | 0.0 | 1.6 | 0.00 | 0.00 | 0.00 | 66 | 994.8 |
| 20260503040922 | 14 | 139 | 1.6 | 1.6 | 0.00 | 0.00 | 0.00 | 66 | 994.8 |
| 20260503040822 | 14 | 135 | 0.0 | 1.6 | 0.00 | 0.00 | 0.00 | 68 | 994.8 |
| 20260503040722 | 14 | 135 | 0.0 | 0.0 | 0.00 | 0.00 | 0.00 | 69 | 994.8 |
| 20260503040622 | 14 | 135 | 0.0 | 0.0 | 0.00 | 0.00 | 0.00 | 69 | 994.8 |
| 20260503040522 | 14 | 155 | 0.0 | 0.0 | 0.00 | 0.00 | 0.00 | 69 | 994.9 |
| 20260503040422 | 14 | 158 | 0.0 | 1.6 | 0.00 | 0.00 | 0.00 | 69 | 994.9 |
| 20260503040322 | 14 | 146 | 0.0 | 1.6 | 0.00 | 0.00 | 0.00 | 69 | 995.0 |
| 20260503040222 | 13 | 120 | 0.0 | 0.0 | 0.00 | 0.00 | 0.00 | 70 | 995.1 |
| 20260503040122 | 13 | 132 | 0.0 | 0.0 | 0.00 | 0.00 | 0.00 | 71 | 995.0 |
| 20260503040022 | 13 | 135 | 0.0 | 0.0 | 0.00 | 0.00 | 0.00 | 71 | 994.9 |
| 20260503035922 | 13 | 135 | 0.0 | 0.0 | 0.00 | 0.00 | 0.00 | 71 | 994.9 |
| 20260503035822 | 13 | 135 | 0.0 | 0.0 | 0.00 | 0.00 | 0.00 | 72 | 994.8 |
| 20260503035722 | 13 | 135 | 0.0 | 0.0 | 0.00 | 0.00 | 0.00 | 73 | 995.0 |
| 20260503035622 | 13 | 119 | 0.0 | 0.0 | 0.00 | 0.00 | 0.00 | 74 | 994.9 |
| 20260503035522 | 13 | 292 | 0.0 | 0.0 | 0.00 | 0.00 | 0.00 | 75 | 994.8 |
| 20260503035422 | 13 | 292 | 0.0 | 0.0 | 0.00 | 0.00 | 0.00 | 75 | 994.9 |
| 20260503035322 | 13 | 292 | 0.0 | 0.0 | 0.00 | 0.00 | 0.00 | 75 | 994.8 |
| 20260503035222 | 13 | 330 | 0.0 | 0.0 | 0.00 | 0.00 | 0.00 | 74 | 994.8 |
| 20260503035122 | 13 | 338 | 0.0 | 0.0 | 0.00 | 0.00 | 0.00 | 73 | 994.8 |
| 20260503035021 | 13 | 323 | 0.0 | 0.0 | 0.00 | 0.00 | 0.00 | 74 | 994.8 |
| 20260503034921 | 13 | 301 | 0.0 | 0.0 | 0.00 | 0.00 | 0.00 | 74 | 994.8 |
| 20260503034821 | 13 | 292 | 0.0 | 0.0 | 0.00 | 0.00 | 0.00 | 74 | 994.9 |
| 20260503034721 | 13 | 292 | 0.0 | 0.0 | 0.00 | 0.00 | 0.00 | 74 | 994.8 |
| 20260503034621 | 13 | 292 | 0.0 | 0.0 | 0.00 | 0.00 | 0.00 | 74 | 994.8 |
| 20260503034521 | 13 | 292 | 0.0 | 0.0 | 0.00 | 0.00 | 0.00 | 75 | 994.8 |
| 20260503034421 | 13 | 288 | 0.0 | 0.0 | 0.00 | 0.00 | 0.00 | 74 | 994.6 |
| 20260503034321 | 13 | 270 | 0.0 | 0.0 | 0.00 | 0.00 | 0.00 | 73 | 994.7 |
| 20260503034221 | 13 | 270 | 0.0 | 1.6 | 0.00 | 0.00 | 0.00 | 73 | 994.7 |
| 20260503034121 | 13 | 270 | 0.0 | 1.6 | 0.00 | 0.00 | 0.00 | 72 | 994.6 |
| 20260503034021 | 13 | 277 | 0.0 | 1.6 | 0.00 | 0.00 | 0.00 | 72 | 994.7 |
| 20260503033921 | 14 | 292 | 0.0 | 0.0 | 0.00 | 0.00 | 0.00 | 72 | 994.8 |
| 20260503033821 | 14 | 323 | 0.0 | 0.0 | 0.00 | 0.00 | 0.00 | 70 | 994.8 |
| 20260503033721 | 14 | 338 | 0.0 | 0.0 | 0.00 | 0.00 | 0.00 | 69 | 994.7 |
| 20260503033621 | 14 | 338 | 0.0 | 0.0 | 0.00 | 0.00 | 0.00 | 69 | 994.6 |
| 20260503033521 | 14 | 338 | 0.0 | 0.0 | 0.00 | 0.00 | 0.00 | 71 | 994.7 |
| 20260503033421 | 15 | 338 | 0.0 | 0.0 | 0.00 | 0.00 | 0.00 | 71 | 994.8 |
| 20260503033321 | 15 | 77 | 0.0 | 0.0 | 0.00 | 0.00 | 0.00 | 70 | 994.7 |
| 20260503033221 | 15 | 132 | 0.0 | 0.0 | 0.00 | 0.00 | 0.00 | 65 | 994.8 |
| 20260503033121 | 15 | 135 | 0.0 | 0.0 | 0.00 | 0.00 | 0.00 | 64 | 994.9 |
| 20260503033021 | 15 | 119 | 0.0 | 0.0 | 0.00 | 0.00 | 0.00 | 65 | 994.7 |
| 20260503032922 | 15 | 127 | 0.0 | 0.0 | 0.00 | 0.00 | 0.00 | 65 | 994.7 |
| 20260503032822 | 14 | 150 | 0.0 | 1.6 | 0.00 | 0.00 | 0.00 | 66 | 994.8 |
| 20260503032722 | 14 | 135 | 0.0 | 1.6 | 0.00 | 0.00 | 0.00 | 65 | 994.8 |
| 20260503032622 | 13 | 148 | 0.0 | 1.6 | 0.00 | 0.00 | 0.00 | 67 | 994.8 |
| 20260503032522 | 13 | 142 | 0.0 | 1.6 | 0.00 | 0.00 | 0.00 | 68 | 994.8 |
| 20260503032422 | 13 | 258 | 0.0 | 1.6 | 0.00 | 0.00 | 0.00 | 69 | 994.9 |
| 20260503032322 | 13 | 315 | 0.0 | 0.0 | 0.00 | 0.00 | 0.00 | 71 | 994.9 |
| 20260503032222 | 13 | 315 | 0.0 | 0.0 | 0.00 | 0.00 | 0.00 | 71 | 994.8 |
| 20260503032122 | 13 | 315 | 0.0 | 0.0 | 0.00 | 0.00 | 0.00 | 70 | 994.8 |
| 20260503032022 | 13 | 315 | 0.0 | 0.0 | 0.00 | 0.00 | 0.00 | 69 | 994.9 |
| 20260503031922 | 13 | 315 | 0.0 | 0.0 | 0.00 | 0.00 | 0.00 | 70 | 994.8 |
| 20260503031822 | 13 | 315 | 0.0 | 0.0 | 0.00 | 0.00 | 0.00 | 70 | 994.9 |
| 20260503031722 | 13 | 315 | 0.0 | 0.0 | 0.00 | 0.00 | 0.00 | 69 | 994.9 |
| 20260503031622 | 13 | 315 | 0.0 | 0.0 | 0.00 | 0.00 | 0.00 | 69 | 995.0 |
| 20260503031522 | 13 | 315 | 0.0 | 0.0 | 0.00 | 0.00 | 0.00 | 70 | 995.0 |
| 20260503031422 | 13 | 315 | 0.0 | 0.0 | 0.00 | 0.00 | 0.00 | 70 | 994.9 |
| 20260503031322 | 13 | 315 | 0.0 | 0.0 | 0.00 | 0.00 | 0.00 | 71 | 995.1 |
| 20260503031222 | 13 | 315 | 0.0 | 0.0 | 0.00 | 0.00 | 0.00 | 71 | 995.0 |
| 20260503031122 | 13 | 315 | 0.0 | 0.0 | 0.00 | 0.00 | 0.00 | 72 | 994.9 |
| 20260503031022 | 13 | 315 | 0.0 | 0.0 | 0.00 | 0.00 | 0.00 | 72 | 995.0 |
| 20260503030922 | 13 | 315 | 0.0 | 0.0 | 0.00 | 0.00 | 0.00 | 72 | 995.0 |
| 20260503030822 | 13 | 315 | 0.0 | 0.0 | 0.00 | 0.00 | 0.00 | 71 | 995.0 |
| 20260503030721 | 13 | 315 | 0.0 | 0.0 | 0.00 | 0.00 | 0.00 | 72 | 994.9 |
| 20260503030621 | 13 | 315 | 0.0 | 0.0 | 0.00 | 0.00 | 0.00 | 72 | 995.0 |
| 20260503030521 | 13 | 315 | 0.0 | 0.0 | 0.00 | 0.00 | 0.00 | 72 | 995.0 |
| 20260503030422 | 13 | 315 | 0.0 | 0.0 | 0.00 | 0.00 | 0.00 | 72 | 995.0 |
| 20260503030321 | 13 | 315 | 0.0 | 0.0 | 0.00 | 0.00 | 0.00 | 71 | 995.0 |
| 20260503030221 | 13 | 315 | 0.0 | 0.0 | 0.00 | 0.00 | 0.00 | 71 | 995.0 |
| 20260503030121 | 13 | 315 | 0.0 | 0.0 | 0.00 | 0.00 | 0.00 | 71 | 995.0 |
| 20260503030021 | 13 | 315 | 0.0 | 0.0 | 0.00 | 0.00 | 0.00 | 70 | 994.9 |
| 20260503025921 | 13 | 303 | 0.0 | 0.0 | 0.00 | 0.00 | 0.00 | 72 | 994.9 |
| 20260503025821 | 13 | 282 | 0.0 | 0.0 | 0.00 | 0.00 | 0.00 | 71 | 994.9 |
| 20260503025721 | 13 | 270 | 0.0 | 0.0 | 0.00 | 0.00 | 0.00 | 70 | 994.8 |
| 20260503025621 | 13 | 270 | 0.0 | 0.0 | 0.00 | 0.00 | 0.00 | 71 | 994.9 |
| 20260503025521 | 13 | 270 | 0.0 | 0.0 | 0.00 | 0.00 | 0.00 | 70 | 995.0 |
| 20260503025421 | 13 | 270 | 0.0 | 0.0 | 0.00 | 0.00 | 0.00 | 70 | 995.0 |
| 20260503025321 | 13 | 270 | 0.0 | 0.0 | 0.00 | 0.00 | 0.00 | 71 | 995.0 |
| 20260503025221 | 13 | 270 | 0.0 | 0.0 | 0.00 | 0.00 | 0.00 | 72 | 994.9 |
| 20260503025121 | 13 | 270 | 0.0 | 0.0 | 0.00 | 0.00 | 0.00 | 72 | 995.0 |
| 20260503025021 | 13 | 270 | 0.0 | 0.0 | 0.00 | 0.00 | 0.00 | 73 | 995.0 |
| 20260503024921 | 13 | 270 | 0.0 | 0.0 | 0.00 | 0.00 | 0.00 | 73 | 994.9 |
| 20260503024821 | 13 | 270 | 0.0 | 0.0 | 0.00 | 0.00 | 0.00 | 73 | 994.8 |
| 20260503024721 | 13 | 270 | 0.0 | 0.0 | 0.00 | 0.00 | 0.00 | 73 | 994.8 |
| 20260503024621 | 13 | 270 | 0.0 | 0.0 | 0.00 | 0.00 | 0.00 | 73 | 994.8 |
| 20260503024521 | 13 | 270 | 0.0 | 0.0 | 0.00 | 0.00 | 0.00 | 74 | 994.9 |
| 20260503024422 | 13 | 270 | 0.0 | 0.0 | 0.00 | 0.00 | 0.00 | 74 | 994.8 |
| 20260503024322 | 13 | 270 | 0.0 | 0.0 | 0.00 | 0.00 | 0.00 | 74 | 994.9 |
| 20260503024222 | 13 | 270 | 0.0 | 0.0 | 0.00 | 0.00 | 0.00 | 74 | 995.0 |
| 20260503024122 | 13 | 270 | 0.0 | 0.0 | 0.00 | 0.00 | 0.00 | 74 | 995.0 |
| 20260503024022 | 13 | 270 | 0.0 | 0.0 | 0.00 | 0.00 | 0.00 | 74 | 994.9 |
| 20260503023922 | 13 | 270 | 0.0 | 4.8 | 0.00 | 0.00 | 0.00 | 74 | 994.9 |
| 20260503023822 | 13 | 264 | 1.6 | 4.8 | 0.00 | 0.00 | 0.00 | 74 | 995.0 |
| 20260503023722 | 13 | 284 | 0.0 | 4.8 | 0.00 | 0.00 | 0.00 | 72 | 994.9 |
| 20260503023622 | 13 | 292 | 0.0 | 0.0 | 0.00 | 0.00 | 0.00 | 73 | 994.9 |
| 20260503023522 | 13 | 292 | 0.0 | 0.0 | 0.00 | 0.00 | 0.00 | 73 | 994.9 |
| 20260503023422 | 13 | 292 | 0.0 | 0.0 | 0.00 | 0.00 | 0.00 | 73 | 995.0 |
| 20260503023322 | 13 | 292 | 0.0 | 0.0 | 0.00 | 0.00 | 0.00 | 73 | 995.0 |
| 20260503023222 | 13 | 292 | 0.0 | 0.0 | 0.00 | 0.00 | 0.00 | 73 | 995.0 |
| 20260503023122 | 13 | 292 | 0.0 | 0.0 | 0.00 | 0.00 | 0.00 | 73 | 994.9 |
| 20260503023022 | 13 | 292 | 0.0 | 0.0 | 0.00 | 0.00 | 0.00 | 73 | 994.9 |
| 20260503022922 | 13 | 292 | 0.0 | 0.0 | 0.00 | 0.00 | 0.00 | 73 | 994.8 |
| 20260503022822 | 13 | 292 | 0.0 | 0.0 | 0.00 | 0.00 | 0.00 | 72 | 995.0 |
| 20260503022722 | 13 | 292 | 0.0 | 0.0 | 0.00 | 0.00 | 0.00 | 72 | 994.9 |
| 20260503022622 | 13 | 281 | 0.0 | 0.0 | 0.00 | 0.00 | 0.00 | 72 | 995.0 |
| 20260503022522 | 13 | 270 | 0.0 | 0.0 | 0.00 | 0.00 | 0.00 | 71 | 995.0 |
| 20260503022422 | 13 | 270 | 0.0 | 0.0 | 0.00 | 0.00 | 0.00 | 72 | 994.9 |
| 20260503022322 | 13 | 270 | 0.0 | 0.0 | 0.00 | 0.00 | 0.00 | 72 | 994.9 |
| 20260503022222 | 13 | 270 | 0.0 | 0.0 | 0.00 | 0.00 | 0.00 | 72 | 994.9 |
| 20260503022122 | 13 | 270 | 0.0 | 0.0 | 0.00 | 0.00 | 0.00 | 73 | 995.0 |
| 20260503022021 | 13 | 270 | 0.0 | 0.0 | 0.00 | 0.00 | 0.00 | 73 | 995.0 |
| 20260503021921 | 13 | 270 | 0.0 | 0.0 | 0.00 | 0.00 | 0.00 | 73 | 995.2 |
| 20260503021821 | 13 | 270 | 0.0 | 0.0 | 0.00 | 0.00 | 0.00 | 72 | 995.2 |
| 20260503021721 | 13 | 270 | 0.0 | 1.6 | 0.00 | 0.00 | 0.00 | 72 | 995.1 |
| 20260503021621 | 13 | 270 | 0.0 | 1.6 | 0.00 | 0.00 | 0.00 | 73 | 995.1 |
| 20260503021521 | 13 | 251 | 0.0 | 0.0 | 0.00 | 0.00 | 0.00 | 72 | 995.1 |
| 20260503021421 | 13 | 202 | 0.0 | 0.0 | 0.00 | 0.00 | 0.00 | 70 | 995.1 |
| 20260503021321 | 13 | 199 | 0.0 | 0.0 | 0.00 | 0.00 | 0.00 | 70 | 995.0 |
| 20260503021221 | 13 | 188 | 0.0 | 0.0 | 0.00 | 0.00 | 0.00 | 69 | 995.0 |
| 20260503021121 | 13 | 225 | 0.0 | 0.0 | 0.00 | 0.00 | 0.00 | 70 | 994.9 |
| 20260503021021 | 13 | 292 | 0.0 | 0.0 | 0.00 | 0.00 | 0.00 | 72 | 995.0 |
| 20260503020921 | 13 | 292 | 0.0 | 0.0 | 0.00 | 0.00 | 0.00 | 73 | 995.1 |
| 20260503020821 | 13 | 300 | 0.0 | 0.0 | 0.00 | 0.00 | 0.00 | 72 | 994.9 |
| 20260503020721 | 13 | 322 | 0.0 | 0.0 | 0.00 | 0.00 | 0.00 | 72 | 995.0 |
| 20260503020621 | 13 | 338 | 0.0 | 0.0 | 0.00 | 0.00 | 0.00 | 71 | 995.1 |
| 20260503020521 | 13 | 338 | 0.0 | 0.0 | 0.00 | 0.00 | 0.00 | 72 | 995.0 |
| 20260503020421 | 13 | 338 | 0.0 | 0.0 | 0.00 | 0.00 | 0.00 | 72 | 995.0 |
| 20260503020321 | 13 | 338 | 0.0 | 0.0 | 0.00 | 0.00 | 0.00 | 72 | 995.1 |
| 20260503020221 | 13 | 338 | 0.0 | 0.0 | 0.00 | 0.00 | 0.00 | 72 | 995.1 |
| 20260503020121 | 13 | 355 | 0.0 | 0.0 | 0.00 | 0.00 | 0.00 | 72 | 995.2 |
| 20260503020023 | 13 | 0 | 0.0 | 0.0 | 0.00 | 0.00 | 0.00 | 72 | 995.2 |
| 20260503015922 | 13 | 0 | 0.0 | 0.0 | 0.00 | 0.00 | 0.00 | 72 | 995.0 |
| 20260503015822 | 13 | 0 | 0.0 | 0.0 | 0.00 | 0.00 | 0.00 | 72 | 995.0 |
| 20260503015722 | 13 | 0 | 0.0 | 0.0 | 0.00 | 0.00 | 0.00 | 72 | 995.1 |
| 20260503015622 | 13 | 0 | 0.0 | 0.0 | 0.00 | 0.00 | 0.00 | 71 | 995.2 |
| 20260503015522 | 13 | 0 | 0.0 | 0.0 | 0.00 | 0.00 | 0.00 | 72 | 995.1 |
| 20260503015422 | 13 | 0 | 0.0 | 0.0 | 0.00 | 0.00 | 0.00 | 72 | 995.1 |
| 20260503015322 | 13 | 47 | 0.0 | 0.0 | 0.00 | 0.00 | 0.00 | 71 | 995.0 |
| 20260503015222 | 13 | 139 | 0.0 | 0.0 | 0.00 | 0.00 | 0.00 | 70 | 995.0 |
| 20260503015122 | 13 | 269 | 0.0 | 0.0 | 0.00 | 0.00 | 0.00 | 71 | 995.0 |
| 20260503015022 | 13 | 270 | 0.0 | 0.0 | 0.00 | 0.00 | 0.00 | 70 | 995.0 |
| 20260503014922 | 13 | 270 | 0.0 | 0.0 | 0.00 | 0.00 | 0.00 | 70 | 995.1 |
| 20260503014822 | 13 | 270 | 0.0 | 0.0 | 0.00 | 0.00 | 0.00 | 71 | 995.1 |
| 20260503014722 | 13 | 270 | 0.0 | 0.0 | 0.00 | 0.00 | 0.00 | 71 | 995.0 |
| 20260503014622 | 13 | 270 | 0.0 | 0.0 | 0.00 | 0.00 | 0.00 | 70 | 995.1 |
| 20260503014522 | 13 | 307 | 0.0 | 0.0 | 0.00 | 0.00 | 0.00 | 70 | 995.2 |
| 20260503014422 | 13 | 315 | 0.0 | 0.0 | 0.00 | 0.00 | 0.00 | 69 | 995.1 |
| 20260503014322 | 13 | 315 | 0.0 | 0.0 | 0.00 | 0.00 | 0.00 | 68 | 995.1 |
| 20260503014222 | 13 | 315 | 0.0 | 0.0 | 0.00 | 0.00 | 0.00 | 69 | 995.1 |
| 20260503014122 | 13 | 315 | 0.0 | 0.0 | 0.00 | 0.00 | 0.00 | 69 | 995.1 |
| 20260503014022 | 13 | 315 | 0.0 | 0.0 | 0.00 | 0.00 | 0.00 | 70 | 995.2 |
| 20260503013922 | 13 | 315 | 0.0 | 0.0 | 0.00 | 0.00 | 0.00 | 70 | 995.2 |
| 20260503013821 | 13 | 315 | 0.0 | 0.0 | 0.00 | 0.00 | 0.00 | 70 | 995.2 |